CPA830 VHHH-KJFK

Flight info

Callsign CPA830
Flight time N/A
Altitude 29000
Route DALOL V631 ENVAR M750 MIDAI/N0505F310 M750 MUKEP Y891 OVSUN/N0508F300 Y893 IGMIS/N0505F310 Y57 POROT OTR11 AVBET OTR9 EMRON DCT 44N160E/N0492F330 49N170E DCT EYETI DCT CAMBO DCT CUDDA DCT PDN DCT CJAYY/N0489F350 DCT 58N140W DCT YXJ DCT NUBEG Q971 WAINN DCT DURUR DCT 49N100W/N0493F370 DCT GFK DCT GRB DCT TWIGS DCT JHW J106 MAGIO Q476 WLKES PUCKY1
Aircraft B77W/H-SDE1E2E3FGHIJ2J3J4J5M1RWXY/LB1D1

Departure

Time 2026-05-06 01:41
Airport Hong Kong International Airport (VHHH)

Arrival

Time N/A
Airport John F. Kennedy International Airport (KJFK)
Time Latitude Longitude Altitude Speed Heading
2026-05-06 01:04 22.31176 113.92769 0 ft 0 kts 296°
2026-05-06 01:29 22.31173 113.92775 41 ft 4 kts 296°
2026-05-06 01:29 22.31161 113.92801 40 ft 4 kts 296°
2026-05-06 01:29 22.31149 113.92827 38 ft 4 kts 296°
2026-05-06 01:30 22.31141 113.92847 39 ft 4 kts 280°
2026-05-06 01:30 22.31140 113.92865 40 ft 4 kts 237°
2026-05-06 01:30 22.31155 113.92879 37 ft 2 kts 206°
2026-05-06 01:30 22.31173 113.92890 39 ft 4 kts 227°
2026-05-06 01:31 22.31185 113.92912 40 ft 4 kts 253°
2026-05-06 01:31 22.31192 113.92939 38 ft 3 kts 252°
2026-05-06 01:31 22.31194 113.92943 38 ft 0 kts 251°
2026-05-06 01:34 22.31193 113.92942 38 ft 2 kts 250°
2026-05-06 01:34 22.31172 113.92907 39 ft 9 kts 228°
2026-05-06 01:34 22.31102 113.92856 41 ft 15 kts 208°
2026-05-06 01:35 22.30998 113.92794 41 ft 18 kts 212°
2026-05-06 01:35 22.30887 113.92734 41 ft 18 kts 211°
2026-05-06 01:35 22.30807 113.92613 41 ft 26 kts 247°
2026-05-06 01:35 22.30747 113.92420 42 ft 27 kts 253°
2026-05-06 01:36 22.30682 113.92230 42 ft 27 kts 251°
2026-05-06 01:36 22.30613 113.92046 42 ft 27 kts 233°
2026-05-06 01:36 22.30489 113.91899 42 ft 27 kts 241°
2026-05-06 01:36 22.30423 113.91711 42 ft 27 kts 254°
2026-05-06 01:37 22.30383 113.91584 41 ft 27 kts 251°
2026-05-06 01:37 22.30321 113.91395 41 ft 27 kts 251°
2026-05-06 01:37 22.30260 113.91206 41 ft 27 kts 251°
2026-05-06 01:37 22.30199 113.91019 42 ft 27 kts 250°
2026-05-06 01:38 22.30138 113.90827 42 ft 27 kts 251°
2026-05-06 01:38 22.30077 113.90639 41 ft 27 kts 251°
2026-05-06 01:38 22.30016 113.90450 41 ft 27 kts 250°
2026-05-06 01:38 22.29957 113.90263 41 ft 27 kts 250°
2026-05-06 01:39 22.29895 113.90075 41 ft 27 kts 251°
2026-05-06 01:39 22.29833 113.89883 41 ft 27 kts 251°
2026-05-06 01:39 22.29775 113.89778 41 ft 13 kts 202°
2026-05-06 01:39 22.29673 113.89811 42 ft 17 kts 135°
2026-05-06 01:40 22.29669 113.89932 41 ft 17 kts 74°
2026-05-06 01:40 22.29704 113.90052 41 ft 17 kts 71°
2026-05-06 01:40 22.29743 113.90172 39 ft 19 kts 71°
2026-05-06 01:40 22.29831 113.90442 39 ft 71 kts 71°
2026-05-06 01:41 22.30081 113.91215 43 ft 146 kts 70°
2026-05-06 01:41 22.30482 113.92492 99 ft 204 kts 70°
2026-05-06 01:41 22.30958 113.93923 1014 ft 200 kts 71°
2026-05-06 01:41 22.31431 113.95394 1608 ft 212 kts 72°
2026-05-06 01:42 22.31925 113.96973 1821 ft 230 kts 73°
2026-05-06 01:42 22.32448 113.98633 2229 ft 237 kts 72°
2026-05-06 01:42 22.32998 114.00339 2676 ft 244 kts 72°
2026-05-06 01:42 22.33576 114.02132 2879 ft 261 kts 73°
2026-05-06 01:43 22.33875 114.04072 3245 ft 266 kts 98°
2026-05-06 01:43 22.33327 114.05954 3829 ft 264 kts 121°
2026-05-06 01:43 22.32182 114.07521 4324 ft 270 kts 141°
2026-05-06 01:43 22.30544 114.08492 4842 ft 271 kts 165°
2026-05-06 01:44 22.28691 114.08775 5449 ft 268 kts 180°
2026-05-06 01:44 22.26818 114.08749 6000 ft 271 kts 182°
2026-05-06 01:44 22.24916 114.08712 6521 ft 275 kts 182°
2026-05-06 01:44 22.22983 114.08681 6989 ft 280 kts 182°
2026-05-06 01:45 22.21021 114.08658 7468 ft 284 kts 182°
2026-05-06 01:45 22.19027 114.08637 7924 ft 289 kts 182°
2026-05-06 01:45 22.17026 114.08972 8247 ft 299 kts 157°
2026-05-06 01:45 22.15337 114.10331 8611 ft 310 kts 129°
2026-05-06 01:46 22.14241 114.12338 9016 ft 315 kts 118°
2026-05-06 01:46 22.13249 114.14468 9470 ft 320 kts 118°
2026-05-06 01:46 22.12248 114.16626 9975 ft 323 kts 118°
2026-05-06 01:46 22.11229 114.18809 10329 ft 332 kts 118°
2026-05-06 01:47 22.10153 114.21089 10447 ft 350 kts 118°
2026-05-06 01:47 22.09017 114.23479 10579 ft 367 kts 118°
2026-05-06 01:47 22.07753 114.25922 10671 ft 379 kts 128°
2026-05-06 01:47 22.05829 114.27883 10856 ft 383 kts 147°
2026-05-06 01:48 22.03601 114.29520 11172 ft 392 kts 147°
2026-05-06 01:48 22.01350 114.31232 11648 ft 398 kts 146°
2026-05-06 01:48 21.99107 114.32987 12246 ft 399 kts 146°
2026-05-06 01:48 21.96857 114.34762 12791 ft 403 kts 146°
2026-05-06 01:49 21.94607 114.36538 13285 ft 407 kts 146°
2026-05-06 01:49 21.92310 114.38349 13789 ft 411 kts 146°
2026-05-06 01:49 21.89993 114.40173 14243 ft 414 kts 146°
2026-05-06 01:49 21.87661 114.42008 14740 ft 416 kts 146°
2026-05-06 01:50 21.85489 114.44067 15051 ft 422 kts 130°
2026-05-06 01:50 21.84031 114.46830 15349 ft 430 kts 109°
2026-05-06 01:50 21.83247 114.49933 15768 ft 431 kts 105°
2026-05-06 01:50 21.82488 114.53066 16145 ft 435 kts 105°
2026-05-06 01:51 21.81545 114.56855 16744 ft 436 kts 106°
2026-05-06 01:51 21.80745 114.60015 17159 ft 440 kts 106°
2026-05-06 01:51 21.79927 114.63210 17550 ft 444 kts 106°
2026-05-06 01:51 21.79102 114.66414 18027 ft 446 kts 106°
2026-05-06 01:52 21.78271 114.69635 18422 ft 449 kts 106°
2026-05-06 01:52 21.77431 114.72882 18792 ft 451 kts 106°
2026-05-06 01:52 21.76875 114.75034 19023 ft 453 kts 106°
2026-05-06 01:52 21.76028 114.78310 19440 ft 454 kts 106°
2026-05-06 01:53 21.75180 114.81587 19804 ft 457 kts 106°
2026-05-06 01:53 21.74379 114.84896 20129 ft 460 kts 100°
2026-05-06 01:53 21.74114 114.88328 20460 ft 461 kts 89°
2026-05-06 01:53 21.74167 114.91783 20816 ft 463 kts 88°
2026-05-06 01:54 21.74259 114.95253 21191 ft 465 kts 88°
2026-05-06 01:54 21.74328 114.98736 21522 ft 468 kts 89°
2026-05-06 01:54 21.74360 115.02242 21873 ft 470 kts 89°
2026-05-06 01:54 21.74363 115.05762 22237 ft 471 kts 89°
2026-05-06 01:55 21.74351 115.09297 22583 ft 473 kts 90°
2026-05-06 01:55 21.74334 115.12842 22945 ft 475 kts 90°
2026-05-06 01:55 21.74318 115.16406 23226 ft 478 kts 90°
2026-05-06 01:55 21.74305 115.19990 23592 ft 479 kts 90°
2026-05-06 01:56 21.74293 115.23576 23867 ft 482 kts 89°
2026-05-06 01:56 21.74285 115.27187 24121 ft 483 kts 89°
2026-05-06 01:56 21.74278 115.30802 24432 ft 484 kts 89°
2026-05-06 01:56 21.74277 115.31418 24463 ft 485 kts 89°
2026-05-06 01:57 21.74270 115.35090 24704 ft 487 kts 89°
2026-05-06 01:57 21.74262 115.38732 25020 ft 488 kts 89°
2026-05-06 01:57 21.74253 115.42394 25196 ft 492 kts 89°
2026-05-06 01:57 21.74242 115.46071 25514 ft 491 kts 90°
2026-05-06 01:58 21.74230 115.49746 25748 ft 494 kts 90°
2026-05-06 01:58 21.74218 115.53448 25986 ft 495 kts 90°
2026-05-06 01:58 21.74204 115.57159 26257 ft 497 kts 90°
2026-05-06 01:58 21.74190 115.60887 26450 ft 500 kts 89°
2026-05-06 01:59 21.74177 115.64626 26717 ft 501 kts 89°
2026-05-06 01:59 21.74164 115.68381 26921 ft 503 kts 89°
2026-05-06 01:59 21.74151 115.72156 27113 ft 506 kts 89°
2026-05-06 01:59 21.74136 115.75941 27423 ft 506 kts 89°
2026-05-06 02:00 21.74120 115.79734 27572 ft 509 kts 89°
2026-05-06 02:00 21.74103 115.83544 27817 ft 510 kts 89°
2026-05-06 02:00 21.74085 115.87367 28078 ft 511 kts 89°
2026-05-06 02:00 21.74067 115.91189 28286 ft 513 kts 89°
2026-05-06 02:01 21.74047 115.95031 28457 ft 515 kts 89°
2026-05-06 02:01 21.74026 115.98888 28661 ft 516 kts 89°
2026-05-06 02:01 21.74005 116.02753 28857 ft 517 kts 89°
2026-05-06 02:01 21.73982 116.06635 28928 ft 521 kts 89°
2026-05-06 02:02 21.73934 116.14426 28994 ft 521 kts 89°
2026-05-06 02:02 21.73882 116.22239 29006 ft 525 kts 90°
2026-05-06 02:03 21.73826 116.30124 28996 ft 528 kts 90°
2026-05-06 02:03 21.73766 116.38038 28999 ft 529 kts 90°
2026-05-06 02:04 21.73702 116.45955 29000 ft 530 kts 90°
2026-05-06 02:04 21.73634 116.53879 28992 ft 529 kts 90°
2026-05-06 02:05 21.73563 116.61785 28993 ft 528 kts 90°
2026-05-06 02:05 21.73488 116.69686 28994 ft 528 kts 90°
2026-05-06 02:06 21.73889 116.77496 28994 ft 526 kts 79°
2026-05-06 02:06 21.75662 116.85092 28991 ft 523 kts 68°
2026-05-06 02:07 21.78344 116.92367 28999 ft 523 kts 66°
2026-05-06 02:07 21.81057 116.99644 28995 ft 525 kts 66°
2026-05-06 02:08 21.83729 117.06969 28995 ft 526 kts 66°
2026-05-06 02:08 21.86379 117.14318 28999 ft 527 kts 66°
2026-05-06 02:09 21.89033 117.21691 28998 ft 528 kts 66°
2026-05-06 02:09 21.91688 117.29066 28999 ft 528 kts 66°
2026-05-06 02:10 21.94338 117.36439 28998 ft 528 kts 66°
2026-05-06 02:10 21.96989 117.43824 28999 ft 528 kts 66°
2026-05-06 02:11 21.99818 117.51116 28997 ft 525 kts 60°
2026-05-06 02:11 22.03540 117.57849 29006 ft 522 kts 55°
2026-05-06 02:12 22.07387 117.64485 28994 ft 522 kts 55°
2026-05-06 02:12 22.11189 117.71155 29001 ft 522 kts 56°
2026-05-06 02:13 22.14959 117.77838 29004 ft 521 kts 56°
2026-05-06 02:13 22.18724 117.84523 29003 ft 521 kts 56°
2026-05-06 02:14 22.22482 117.91197 29007 ft 520 kts 56°
2026-05-06 02:14 22.26233 117.97864 29001 ft 519 kts 56°
2026-05-06 02:15 22.30017 118.04498 29006 ft 518 kts 54°
2026-05-06 02:15 22.33890 118.11062 29006 ft 517 kts 54°
2026-05-06 02:16 22.37745 118.17629 29009 ft 517 kts 54°
2026-05-06 02:16 22.41568 118.24210 29006 ft 516 kts 55°
2026-05-06 02:17 22.45288 118.30790 29006 ft 516 kts 56°
2026-05-06 02:17 22.49016 118.37411 29005 ft 515 kts 56°
2026-05-06 02:18 22.52746 118.44017 29008 ft 514 kts 55°
2026-05-06 02:18 22.56471 118.50612 29009 ft 514 kts 55°
2026-05-06 02:19 22.60209 118.57194 29007 ft 513 kts 55°
2026-05-06 02:19 22.63961 118.63756 29005 ft 512 kts 55°
2026-05-06 02:20 22.69581 118.73612 29010 ft 512 kts 55°
2026-05-06 02:21 22.73319 118.80187 29003 ft 512 kts 55°
2026-05-06 02:21 22.77050 118.86760 29010 ft 512 kts 55°
2026-05-06 02:22 22.80782 118.93344 29002 ft 512 kts 55°
2026-05-06 02:22 22.84514 118.99934 29003 ft 513 kts 55°
2026-05-06 02:23 22.88239 119.06520 29007 ft 513 kts 55°
2026-05-06 02:23 22.91968 119.13123 29007 ft 513 kts 55°
2026-05-06 02:24 22.95691 119.19723 29003 ft 513 kts 55°
2026-05-06 02:24 22.99414 119.26332 29004 ft 513 kts 55°
2026-05-06 02:25 23.03135 119.32946 29004 ft 513 kts 55°
2026-05-06 02:25 23.06846 119.39551 29009 ft 513 kts 55°
2026-05-06 02:26 23.10561 119.46171 29010 ft 513 kts 55°
2026-05-06 02:26 23.14267 119.52784 28994 ft 513 kts 54°
2026-05-06 02:27 23.17975 119.59409 28996 ft 513 kts 54°
2026-05-06 02:27 23.21677 119.66035 29018 ft 513 kts 54°
2026-05-06 02:28 23.25377 119.72674 29004 ft 513 kts 54°
2026-05-06 02:28 23.29074 119.79313 29014 ft 513 kts 54°
2026-05-06 02:29 23.32774 119.85967 29012 ft 514 kts 54°
2026-05-06 02:29 23.36720 119.92405 29006 ft 508 kts 46°
2026-05-06 02:30 23.41536 119.97949 29007 ft 502 kts 38°
2026-05-06 02:30 23.46658 120.03129 29004 ft 502 kts 38°
2026-05-06 02:31 23.51735 120.08301 28998 ft 503 kts 38°
2026-05-06 02:31 23.56822 120.13545 29004 ft 504 kts 39°
2026-05-06 02:32 23.61905 120.18806 29005 ft 505 kts 39°
2026-05-06 02:32 23.67004 120.24087 29007 ft 504 kts 39°
2026-05-06 02:33 23.72089 120.29358 29010 ft 504 kts 39°
2026-05-06 02:33 23.72948 120.30249 29010 ft 504 kts 39°
2026-05-06 02:34 23.81395 120.39018 29015 ft 504 kts 38°
2026-05-06 02:34 23.86469 120.44294 29028 ft 504 kts 38°
2026-05-06 02:35 23.91547 120.49580 29021 ft 503 kts 39°
2026-05-06 02:35 23.96594 120.54888 29057 ft 504 kts 39°
2026-05-06 02:36 24.01648 120.60230 29046 ft 505 kts 39°
2026-05-06 02:36 24.06694 120.65565 29057 ft 505 kts 39°
2026-05-06 02:37 24.11739 120.70900 29052 ft 504 kts 39°
2026-05-06 02:37 24.16774 120.76230 29057 ft 503 kts 39°
2026-05-06 02:38 24.21804 120.81560 29051 ft 503 kts 39°
2026-05-06 02:38 24.26826 120.86891 29064 ft 502 kts 39°
2026-05-06 02:39 24.31846 120.92226 29063 ft 503 kts 39°
2026-05-06 02:39 24.36633 120.97316 29063 ft 504 kts 39°
2026-05-06 02:40 24.41632 121.02705 29073 ft 505 kts 42°
2026-05-06 02:40 24.46134 121.08688 29081 ft 510 kts 46°
2026-05-06 02:41 24.50498 121.14818 29085 ft 508 kts 46°
2026-05-06 02:41 24.54882 121.20926 29068 ft 508 kts 46°
2026-05-06 02:42 24.59291 121.27007 29085 ft 509 kts 46°
2026-05-06 02:42 24.63675 121.33065 29051 ft 511 kts 46°
2026-05-06 02:43 24.68099 121.39186 29053 ft 511 kts 46°
2026-05-06 02:43 24.72534 121.45332 29038 ft 513 kts 46°
2026-05-06 02:44 24.76959 121.51474 29004 ft 510 kts 46°
2026-05-06 02:44 24.81361 121.57592 29033 ft 511 kts 46°
2026-05-06 02:45 24.85789 121.63749 29027 ft 515 kts 46°
2026-05-06 02:45 24.90241 121.69944 29023 ft 517 kts 46°
2026-05-06 02:46 24.94891 121.75968 29017 ft 516 kts 43°
2026-05-06 02:46 24.99648 121.81910 29012 ft 517 kts 44°
2026-05-06 02:47 25.04367 121.87900 29014 ft 518 kts 44°
2026-05-06 02:47 25.09072 121.93935 29021 ft 519 kts 44°
2026-05-06 02:48 25.13781 121.99972 29027 ft 519 kts 44°
2026-05-06 02:48 25.18470 122.06027 29023 ft 519 kts 45°
2026-05-06 02:49 25.23158 122.12110 29025 ft 520 kts 45°
2026-05-06 02:49 25.27851 122.18204 29024 ft 520 kts 45°
2026-05-06 02:50 25.32542 122.24298 29024 ft 521 kts 45°
2026-05-06 02:50 25.37210 122.30370 29029 ft 522 kts 45°
2026-05-06 02:51 25.41913 122.36496 29017 ft 523 kts 45°
2026-05-06 02:51 25.46628 122.42647 29026 ft 524 kts 45°
2026-05-06 02:52 25.51343 122.48805 29024 ft 525 kts 45°
2026-05-06 02:52 25.56085 122.54965 29031 ft 526 kts 45°
2026-05-06 02:53 25.60840 122.61133 29029 ft 527 kts 46°
2026-05-06 02:53 25.65596 122.67316 29026 ft 527 kts 46°
2026-05-06 02:54 25.70356 122.73520 29028 ft 528 kts 46°
2026-05-06 02:54 25.75107 122.79721 29029 ft 528 kts 46°
2026-05-06 02:55 25.79856 122.85927 29026 ft 528 kts 46°
2026-05-06 02:55 25.84604 122.92140 29027 ft 527 kts 46°
2026-05-06 02:56 25.89350 122.98358 29027 ft 527 kts 46°
2026-05-06 02:56 25.94088 123.04575 29034 ft 527 kts 47°
2026-05-06 02:57 25.98831 123.10813 29030 ft 528 kts 47°
2026-05-06 02:57 26.03571 123.17059 29028 ft 529 kts 47°
2026-05-06 02:58 26.08314 123.23317 29036 ft 530 kts 47°
2026-05-06 02:58 26.13067 123.29596 29028 ft 531 kts 48°
2026-05-06 02:59 26.17824 123.35890 29036 ft 532 kts 48°
2026-05-06 02:59 26.22587 123.42200 29029 ft 533 kts 48°
2026-05-06 03:00 26.27361 123.48534 29032 ft 534 kts 48°
2026-05-06 03:00 26.32143 123.54887 29034 ft 535 kts 49°
2026-05-06 03:01 26.36933 123.61259 29039 ft 536 kts 49°
2026-05-06 03:01 26.41726 123.67646 29028 ft 537 kts 49°
2026-05-06 03:02 26.46528 123.74053 29028 ft 538 kts 49°
2026-05-06 03:02 26.51332 123.80472 29026 ft 539 kts 50°
2026-05-06 03:03 26.56143 123.86910 29025 ft 541 kts 50°
2026-05-06 03:03 26.60979 123.93393 29042 ft 544 kts 50°
2026-05-06 03:04 26.65841 123.99916 29042 ft 548 kts 51°
2026-05-06 03:04 26.70704 124.06435 29022 ft 550 kts 51°
2026-05-06 03:05 26.75644 124.13055 29038 ft 551 kts 51°
2026-05-06 03:05 26.80523 124.19606 29024 ft 552 kts 51°
2026-05-06 03:06 26.85471 124.26265 29025 ft 553 kts 52°
2026-05-06 03:06 26.90363 124.32857 29047 ft 554 kts 52°
2026-05-06 03:07 26.95295 124.39513 29049 ft 555 kts 52°
2026-05-06 03:07 27.00227 124.46172 29026 ft 555 kts 52°
2026-05-06 03:08 27.05160 124.52818 29032 ft 555 kts 52°
2026-05-06 03:08 27.10098 124.59477 29032 ft 555 kts 52°
2026-05-06 03:09 27.15036 124.66154 29035 ft 556 kts 52°
2026-05-06 03:09 27.19975 124.72842 29050 ft 557 kts 52°
2026-05-06 03:10 27.24922 124.79554 29035 ft 558 kts 52°
2026-05-06 03:10 27.29876 124.86283 29038 ft 559 kts 52°
2026-05-06 03:11 27.34835 124.93031 29036 ft 560 kts 52°
2026-05-06 03:11 27.39793 124.99787 29041 ft 560 kts 52°
2026-05-06 03:12 27.44777 125.06535 29038 ft 560 kts 52°
2026-05-06 03:12 27.49777 125.13267 29042 ft 559 kts 52°
2026-05-06 03:13 27.54759 125.19990 29046 ft 559 kts 52°
2026-05-06 03:13 27.59723 125.26711 29044 ft 558 kts 52°
2026-05-06 03:14 27.64689 125.33449 29047 ft 558 kts 52°
2026-05-06 03:14 27.68805 125.39043 29046 ft 558 kts 52°
2026-05-06 03:15 27.73771 125.45800 29047 ft 560 kts 52°
2026-05-06 03:15 27.78743 125.52576 29048 ft 561 kts 52°
2026-05-06 03:16 27.83723 125.59371 29044 ft 562 kts 52°
2026-05-06 03:16 27.88706 125.66183 29044 ft 563 kts 52°
2026-05-06 03:17 27.93697 125.73016 29045 ft 563 kts 52°
2026-05-06 03:17 27.98689 125.79863 29042 ft 564 kts 52°
2026-05-06 03:18 28.03674 125.86709 29043 ft 563 kts 52°
2026-05-06 03:18 28.08632 125.93531 29043 ft 563 kts 52°
2026-05-06 03:19 28.13608 126.00387 29047 ft 563 kts 52°
2026-05-06 03:19 28.18579 126.07247 29041 ft 563 kts 52°
2026-05-06 03:20 28.26014 126.17530 29048 ft 562 kts 52°
2026-05-06 03:20 28.30974 126.24404 29045 ft 562 kts 52°
2026-05-06 03:21 28.35924 126.31274 29048 ft 562 kts 52°
2026-05-06 03:21 28.40875 126.38157 29047 ft 562 kts 52°
2026-05-06 03:22 28.45822 126.45047 29046 ft 563 kts 52°
2026-05-06 03:22 28.50769 126.51947 29044 ft 563 kts 52°
2026-05-06 03:23 28.55717 126.58861 29045 ft 563 kts 52°
2026-05-06 03:23 28.60650 126.65765 29045 ft 563 kts 53°
2026-05-06 03:24 28.65589 126.72687 29040 ft 563 kts 53°
2026-05-06 03:24 28.70525 126.79619 29054 ft 564 kts 53°
2026-05-06 03:25 28.75469 126.86572 29055 ft 565 kts 53°
2026-05-06 03:25 28.80418 126.93544 29036 ft 565 kts 53°
2026-05-06 03:26 28.85364 127.00524 29058 ft 566 kts 53°
2026-05-06 03:26 28.90281 127.07475 29045 ft 566 kts 53°
2026-05-06 03:27 28.95230 127.14482 29044 ft 567 kts 53°
2026-05-06 03:27 29.00177 127.21498 29048 ft 568 kts 53°
2026-05-06 03:28 29.05160 127.28578 29049 ft 568 kts 53°
2026-05-06 03:28 29.10082 127.35582 29051 ft 569 kts 53°
2026-05-06 03:29 29.15042 127.42654 29054 ft 570 kts 53°
2026-05-06 03:29 29.19998 127.49730 29054 ft 570 kts 53°
2026-05-06 03:30 29.24959 127.56827 29054 ft 571 kts 53°
2026-05-06 03:30 29.29920 127.63936 29054 ft 571 kts 53°
2026-05-06 03:31 29.34885 127.71064 29060 ft 572 kts 53°
2026-05-06 03:31 29.39850 127.78204 29057 ft 572 kts 53°
2026-05-06 03:32 29.44776 127.85301 29058 ft 573 kts 53°
2026-05-06 03:32 29.49735 127.92457 29062 ft 573 kts 53°
2026-05-06 03:33 29.54691 127.99617 29061 ft 573 kts 53°
2026-05-06 03:33 29.59645 128.06777 29055 ft 572 kts 53°
2026-05-06 03:34 29.64594 128.13940 29055 ft 572 kts 53°
2026-05-06 03:34 29.69536 128.21109 29057 ft 572 kts 53°
2026-05-06 03:35 29.74473 128.28284 29058 ft 572 kts 53°
2026-05-06 03:35 29.79414 128.35478 29060 ft 573 kts 53°
2026-05-06 03:36 29.84350 128.42678 29059 ft 573 kts 53°
2026-05-06 03:36 29.89075 128.49581 29058 ft 573 kts 53°
2026-05-06 03:37 29.94015 128.56811 29056 ft 574 kts 53°
2026-05-06 03:37 29.98949 128.64045 29056 ft 574 kts 53°
2026-05-06 03:38 30.03888 128.71301 29053 ft 574 kts 53°
2026-05-06 03:38 30.08818 128.78555 29053 ft 574 kts 53°
2026-05-06 03:39 30.13743 128.85817 29052 ft 574 kts 53°
2026-05-06 03:39 30.18661 128.93080 29053 ft 574 kts 53°
2026-05-06 03:40 30.23571 129.00345 29054 ft 574 kts 53°
2026-05-06 03:40 30.26001 129.03944 29177 ft 576 kts 53°
2026-05-06 03:40 30.28466 129.07597 29542 ft 574 kts 53°
2026-05-06 03:41 30.30915 129.11230 29938 ft 572 kts 53°
2026-05-06 03:41 30.33363 129.14865 30272 ft 571 kts 53°
2026-05-06 03:41 30.35805 129.18494 30581 ft 570 kts 53°
2026-05-06 03:41 30.38234 129.22109 30891 ft 569 kts 53°
2026-05-06 03:42 30.40667 129.25734 30999 ft 572 kts 53°
2026-05-06 03:42 30.43105 129.29370 31052 ft 572 kts 53°
2026-05-06 03:42 30.47970 129.36632 31044 ft 567 kts 53°
2026-05-06 03:43 30.52795 129.43847 31058 ft 565 kts 53°
2026-05-06 03:43 30.57600 129.51047 31059 ft 565 kts 53°
2026-05-06 03:44 30.62407 129.58263 31065 ft 566 kts 53°
2026-05-06 03:44 30.67224 129.65506 31065 ft 567 kts 53°
2026-05-06 03:45 30.72047 129.72774 31075 ft 569 kts 53°
2026-05-06 03:45 30.76887 129.80079 31073 ft 570 kts 53°
2026-05-06 03:46 30.81702 129.87359 31072 ft 571 kts 53°
2026-05-06 03:46 30.86379 129.94891 31086 ft 570 kts 59°
2026-05-06 03:47 30.90512 130.02695 31079 ft 570 kts 60°
2026-05-06 03:47 30.94621 130.10582 31075 ft 569 kts 60°
2026-05-06 03:48 30.98750 130.18431 31082 ft 568 kts 59°
2026-05-06 03:48 31.02901 130.26270 31081 ft 567 kts 59°
2026-05-06 03:49 31.06907 130.33844 31088 ft 567 kts 60°
2026-05-06 03:49 31.11045 130.41692 31093 ft 568 kts 60°
2026-05-06 03:50 31.15188 130.49569 31090 ft 570 kts 60°
2026-05-06 03:50 31.19331 130.57465 31093 ft 571 kts 60°
2026-05-06 03:51 31.23472 130.65371 31089 ft 570 kts 60°
2026-05-06 03:51 31.27606 130.73280 31100 ft 570 kts 60°
2026-05-06 03:52 31.31731 130.81189 31102 ft 569 kts 60°
2026-05-06 03:52 31.35845 130.89092 31105 ft 569 kts 60°
2026-05-06 03:53 31.39952 130.96997 31112 ft 569 kts 60°
2026-05-06 03:53 31.44059 131.04920 31116 ft 569 kts 60°
2026-05-06 03:54 31.48158 131.12845 31123 ft 570 kts 60°
2026-05-06 03:54 31.52264 131.20798 31121 ft 571 kts 61°
2026-05-06 03:55 31.56346 131.28722 31132 ft 572 kts 61°
2026-05-06 03:55 31.60459 131.36720 31139 ft 573 kts 61°
2026-05-06 03:56 31.64575 131.44751 31129 ft 574 kts 61°
2026-05-06 03:56 31.68686 131.52793 31140 ft 574 kts 61°
2026-05-06 03:57 31.72793 131.60845 31128 ft 574 kts 61°
2026-05-06 03:57 31.76894 131.68903 31132 ft 574 kts 61°
2026-05-06 03:58 31.80987 131.76963 31132 ft 574 kts 61°
2026-05-06 03:58 31.84383 131.83663 31129 ft 574 kts 61°
2026-05-06 03:59 31.88463 131.91727 31130 ft 574 kts 61°
2026-05-06 03:59 31.92536 131.99796 31128 ft 574 kts 61°
2026-05-06 04:00 31.96609 132.07881 31125 ft 574 kts 61°
2026-05-06 04:00 32.00672 132.15964 31133 ft 574 kts 61°
2026-05-06 04:01 32.04705 132.24006 31129 ft 574 kts 61°
2026-05-06 04:01 32.08764 132.32117 31124 ft 574 kts 61°
2026-05-06 04:02 32.12797 132.40245 31121 ft 573 kts 63°
2026-05-06 04:02 32.16414 132.48582 31127 ft 571 kts 66°
2026-05-06 04:03 32.19915 132.56986 31124 ft 570 kts 66°
2026-05-06 04:03 32.23428 132.65383 31129 ft 570 kts 66°
2026-05-06 04:04 32.26963 132.73768 31134 ft 570 kts 65°
2026-05-06 04:04 32.30504 132.82165 31120 ft 570 kts 65°
2026-05-06 04:05 32.34032 132.90559 31127 ft 571 kts 65°
2026-05-06 04:05 32.37535 132.98922 31119 ft 571 kts 65°
2026-05-06 04:06 32.41059 133.07354 31128 ft 572 kts 65°
2026-05-06 04:06 32.44583 133.15807 31106 ft 573 kts 65°
2026-05-06 04:07 32.48113 133.24293 31125 ft 575 kts 65°
2026-05-06 04:07 32.51648 133.32814 31141 ft 577 kts 65°
2026-05-06 04:08 32.55194 133.41377 31125 ft 580 kts 65°
2026-05-06 04:08 32.58756 133.49965 31129 ft 581 kts 65°
2026-05-06 04:09 32.62352 133.58575 31129 ft 583 kts 65°
2026-05-06 04:09 32.65923 133.67213 31124 ft 583 kts 66°
2026-05-06 04:10 32.69454 133.75886 31120 ft 583 kts 66°
2026-05-06 04:10 32.72979 133.84559 31131 ft 583 kts 66°
2026-05-06 04:11 32.76504 133.93235 31129 ft 583 kts 66°
2026-05-06 04:11 32.80021 134.01908 31123 ft 582 kts 66°
2026-05-06 04:12 32.83110 134.10437 31128 ft 579 kts 75°
2026-05-06 04:12 32.85370 134.19539 31132 ft 576 kts 77°
2026-05-06 04:13 32.87562 134.28709 31132 ft 577 kts 77°
2026-05-06 04:13 32.89813 134.37873 31130 ft 577 kts 77°
2026-05-06 04:14 32.92089 134.47024 31138 ft 577 kts 77°
2026-05-06 04:14 32.94358 134.56190 31139 ft 577 kts 77°
2026-05-06 04:15 32.96608 134.65342 31145 ft 576 kts 77°
2026-05-06 04:15 32.98854 134.74503 31143 ft 575 kts 77°
2026-05-06 04:16 33.00641 134.83742 31138 ft 569 kts 86°
2026-05-06 04:16 33.01594 134.93081 31145 ft 567 kts 88°
2026-05-06 04:17 33.02545 135.02411 31086 ft 568 kts 87°
2026-05-06 04:17 33.03564 135.11746 31150 ft 569 kts 87°
2026-05-06 04:18 33.04581 135.21123 31153 ft 572 kts 87°
2026-05-06 04:18 33.05577 135.30536 31158 ft 574 kts 87°
2026-05-06 04:19 33.06568 135.39981 31154 ft 574 kts 87°
2026-05-06 04:19 33.07556 135.49431 31135 ft 574 kts 87°
2026-05-06 04:20 33.08537 135.58871 31145 ft 573 kts 87°
2026-05-06 04:20 33.09506 135.68288 31146 ft 572 kts 87°
2026-05-06 04:21 33.10462 135.77685 31155 ft 570 kts 87°
2026-05-06 04:21 33.11410 135.87067 31155 ft 570 kts 87°
2026-05-06 04:22 33.12351 135.96449 31155 ft 569 kts 87°
2026-05-06 04:23 33.13751 136.10545 31158 ft 570 kts 87°
2026-05-06 04:23 33.14676 136.19945 31161 ft 571 kts 87°
2026-05-06 04:24 33.15596 136.29370 31159 ft 572 kts 87°
2026-05-06 04:24 33.16511 136.38809 31162 ft 573 kts 87°
2026-05-06 04:25 33.17414 136.48198 31160 ft 573 kts 87°
2026-05-06 04:25 33.18320 136.57667 31165 ft 573 kts 87°
2026-05-06 04:26 33.19223 136.67120 31168 ft 574 kts 87°
2026-05-06 04:26 33.20122 136.76593 31166 ft 574 kts 87°
2026-05-06 04:27 33.21012 136.86059 31158 ft 574 kts 87°
2026-05-06 04:27 33.21894 136.95532 31159 ft 573 kts 87°
2026-05-06 04:28 33.22771 137.05025 31200 ft 579 kts 86°
2026-05-06 04:28 33.24253 137.14539 31170 ft 585 kts 75°
2026-05-06 04:29 33.26641 137.23824 31171 ft 584 kts 73°
2026-05-06 04:29 33.29044 137.33091 31177 ft 583 kts 74°
2026-05-06 04:30 33.31369 137.42372 31174 ft 583 kts 75°
2026-05-06 04:30 33.33659 137.51666 31171 ft 583 kts 75°
2026-05-06 04:31 33.35950 137.60975 31178 ft 584 kts 75°
2026-05-06 04:31 33.38244 137.70303 31193 ft 585 kts 75°
2026-05-06 04:32 33.40543 137.79683 31155 ft 588 kts 75°
2026-05-06 04:32 33.43015 137.89004 31155 ft 588 kts 68°
2026-05-06 04:33 33.46546 137.97808 31169 ft 586 kts 56°
2026-05-06 04:33 33.50955 138.05992 31176 ft 585 kts 54°
2026-05-06 04:34 33.55249 138.14204 31185 ft 586 kts 56°
2026-05-06 04:34 33.59499 138.22561 31179 ft 587 kts 56°
2026-05-06 04:35 33.63753 138.30935 31179 ft 588 kts 56°
2026-05-06 04:35 33.68019 138.39312 31178 ft 589 kts 56°
2026-05-06 04:36 33.72290 138.47714 31185 ft 589 kts 56°
2026-05-06 04:36 33.76553 138.56123 31188 ft 590 kts 56°
2026-05-06 04:37 33.80817 138.64546 31186 ft 590 kts 56°
2026-05-06 04:37 33.85075 138.72980 31184 ft 590 kts 56°
2026-05-06 04:38 33.89167 138.81106 31187 ft 589 kts 56°
2026-05-06 04:38 33.93407 138.89545 31178 ft 589 kts 56°
2026-05-06 04:39 33.97642 138.97995 31189 ft 589 kts 57°
2026-05-06 04:39 34.01872 139.06453 31183 ft 588 kts 57°
2026-05-06 04:40 34.06093 139.14914 31183 ft 588 kts 57°
2026-05-06 04:40 34.10304 139.23376 31179 ft 588 kts 57°
2026-05-06 04:41 34.14510 139.31843 31184 ft 588 kts 57°
2026-05-06 04:41 34.18711 139.40312 31191 ft 588 kts 57°
2026-05-06 04:42 34.22198 139.47356 31186 ft 588 kts 57°
2026-05-06 04:42 34.26393 139.55852 31187 ft 588 kts 57°
2026-05-06 04:43 34.30582 139.64357 31188 ft 588 kts 57°
2026-05-06 04:43 34.34766 139.72874 31194 ft 589 kts 57°
2026-05-06 04:44 34.38949 139.81408 31191 ft 589 kts 57°
2026-05-06 04:44 34.43121 139.89940 31186 ft 589 kts 58°
2026-05-06 04:45 34.47293 139.98494 31184 ft 589 kts 58°
2026-05-06 04:45 34.51459 140.07056 31190 ft 590 kts 58°
2026-05-06 04:46 34.55622 140.15634 31187 ft 590 kts 58°
2026-05-06 04:46 34.59783 140.24227 31192 ft 591 kts 58°
2026-05-06 04:47 34.63943 140.32841 31181 ft 592 kts 58°
2026-05-06 04:47 34.68105 140.41479 31193 ft 592 kts 58°
2026-05-06 04:48 34.72232 140.50153 31190 ft 593 kts 59°
2026-05-06 04:48 34.76235 140.58869 31193 ft 595 kts 59°
2026-05-06 04:49 34.80246 140.67680 31192 ft 595 kts 59°
2026-05-06 04:49 34.84272 140.76498 31196 ft 596 kts 59°
2026-05-06 04:50 34.88310 140.85330 31196 ft 597 kts 59°
2026-05-06 04:50 34.92371 140.94230 31196 ft 597 kts 59°
2026-05-06 04:51 34.96397 141.03080 31200 ft 597 kts 60°
2026-05-06 04:51 35.00415 141.11943 31201 ft 598 kts 60°
2026-05-06 04:52 35.04431 141.20822 31200 ft 598 kts 60°
2026-05-06 04:52 35.08447 141.29725 31204 ft 599 kts 60°
2026-05-06 04:53 35.12462 141.38645 31212 ft 600 kts 60°
2026-05-06 04:53 35.16453 141.47538 31208 ft 601 kts 60°
2026-05-06 04:54 35.20476 141.56524 31215 ft 603 kts 60°
2026-05-06 04:54 35.24503 141.65544 31219 ft 605 kts 60°
2026-05-06 04:55 35.28539 141.74609 31211 ft 607 kts 60°
2026-05-06 04:55 35.32576 141.83698 31222 ft 608 kts 60°
2026-05-06 04:56 35.36615 141.92819 31220 ft 610 kts 60°
2026-05-06 04:56 35.40653 142.01960 31224 ft 611 kts 60°
2026-05-06 04:57 35.44693 142.11133 31222 ft 611 kts 60°
2026-05-06 04:57 35.48730 142.20323 31227 ft 612 kts 60°
2026-05-06 04:58 35.52735 142.29464 31225 ft 613 kts 60°
2026-05-06 04:58 35.56769 142.38698 31229 ft 614 kts 60°
2026-05-06 04:59 35.60800 142.47951 31230 ft 615 kts 60°
2026-05-06 04:59 35.64830 142.57226 31229 ft 616 kts 60°
2026-05-06 05:00 35.68860 142.66527 31235 ft 617 kts 60°
2026-05-06 05:00 35.72893 142.75862 31240 ft 618 kts 60°
2026-05-06 05:01 35.76925 142.85220 31241 ft 619 kts 60°
2026-05-06 05:01 35.80956 142.94603 31235 ft 621 kts 60°
2026-05-06 05:02 35.84991 143.04022 31241 ft 622 kts 60°
2026-05-06 05:02 35.89021 143.13466 31243 ft 623 kts 62°
2026-05-06 05:03 35.92279 143.23379 31251 ft 623 kts 74°
2026-05-06 05:03 35.94285 143.33733 31242 ft 619 kts 86°
2026-05-06 05:04 35.95317 143.44269 31252 ft 618 kts 88°
2026-05-06 05:04 35.96289 143.54814 31251 ft 619 kts 88°
2026-05-06 05:05 35.97315 143.65289 31246 ft 619 kts 87°
2026-05-06 05:05 35.98380 143.75820 31247 ft 618 kts 87°
2026-05-06 05:06 35.99438 143.86346 31256 ft 617 kts 87°
2026-05-06 05:06 36.00475 143.96853 31260 ft 616 kts 88°
2026-05-06 05:07 36.01498 144.07350 31261 ft 616 kts 88°
2026-05-06 05:07 36.02511 144.17850 31262 ft 615 kts 88°
2026-05-06 05:08 36.03516 144.28339 31266 ft 615 kts 88°
2026-05-06 05:08 36.04511 144.38829 31268 ft 614 kts 88°
2026-05-06 05:09 36.05496 144.49311 31268 ft 614 kts 88°
2026-05-06 05:09 36.06469 144.59763 31270 ft 613 kts 88°
2026-05-06 05:10 36.07434 144.70223 31267 ft 611 kts 88°
2026-05-06 05:10 36.08386 144.80654 31273 ft 610 kts 88°
2026-05-06 05:11 36.09328 144.91073 31266 ft 609 kts 88°
2026-05-06 05:11 36.10259 145.01473 31273 ft 608 kts 88°
2026-05-06 05:12 36.11180 145.11859 31276 ft 607 kts 89°
2026-05-06 05:12 36.12091 145.22236 31269 ft 606 kts 89°
2026-05-06 05:13 36.12992 145.32598 31273 ft 605 kts 89°
2026-05-06 05:13 36.14263 145.42910 31276 ft 610 kts 78°
2026-05-06 05:14 36.17030 145.52845 31285 ft 613 kts 66°
2026-05-06 05:14 36.21097 145.62100 31296 ft 612 kts 58°
2026-05-06 05:15 36.25434 145.71189 31282 ft 613 kts 58°
2026-05-06 05:15 36.29722 145.80326 31295 ft 614 kts 59°
2026-05-06 05:16 36.33929 145.89481 31276 ft 615 kts 59°
2026-05-06 05:16 36.38136 145.98717 31293 ft 615 kts 59°
2026-05-06 05:17 36.42342 146.07959 31286 ft 615 kts 59°
2026-05-06 05:17 36.46550 146.17211 31283 ft 615 kts 59°
2026-05-06 05:18 36.50747 146.26459 31285 ft 614 kts 59°
2026-05-06 05:18 36.52840 146.31081 31037 ft 614 kts 59°
2026-05-06 05:18 36.54900 146.35653 31144 ft 597 kts 57°
2026-05-06 05:18 36.56895 146.40089 31169 ft 579 kts 57°
2026-05-06 05:19 36.58837 146.44407 31195 ft 567 kts 56°
2026-05-06 05:19 36.62715 146.53004 31304 ft 576 kts 56°
2026-05-06 05:20 36.66678 146.61798 31304 ft 586 kts 56°
2026-05-06 05:20 36.70643 146.70657 31288 ft 585 kts 56°
2026-05-06 05:21 36.74597 146.79527 31289 ft 584 kts 56°
2026-05-06 05:21 36.78503 146.88309 31287 ft 582 kts 56°
2026-05-06 05:22 36.82425 146.97142 31293 ft 580 kts 56°
2026-05-06 05:22 36.86330 147.05959 31296 ft 580 kts 56°
2026-05-06 05:23 36.90222 147.14770 31300 ft 579 kts 56°
2026-05-06 05:23 36.96054 147.28021 31302 ft 580 kts 56°
2026-05-06 05:24 36.99938 147.36875 31301 ft 581 kts 56°
2026-05-06 05:24 37.03819 147.45747 31301 ft 581 kts 56°
2026-05-06 05:25 37.07697 147.54634 31299 ft 582 kts 56°
2026-05-06 05:25 37.11571 147.63541 31303 ft 582 kts 56°
2026-05-06 05:26 37.15440 147.72459 31298 ft 583 kts 56°
2026-05-06 05:26 37.18653 147.79883 31304 ft 583 kts 56°
2026-05-06 05:27 37.22506 147.88808 31306 ft 583 kts 56°
2026-05-06 05:27 37.26361 147.97764 31304 ft 583 kts 56°
2026-05-06 05:28 37.30207 148.06721 31303 ft 582 kts 56°
2026-05-06 05:28 37.34040 148.15677 31306 ft 582 kts 56°
2026-05-06 05:29 37.37864 148.24634 31305 ft 581 kts 56°
2026-05-06 05:29 37.41678 148.33592 31305 ft 580 kts 56°
2026-05-06 05:30 37.45480 148.42548 31303 ft 580 kts 57°
2026-05-06 05:30 37.49248 148.51447 31305 ft 579 kts 57°
2026-05-06 05:31 37.53034 148.60414 31307 ft 579 kts 57°
2026-05-06 05:31 37.56806 148.69374 31310 ft 579 kts 57°
2026-05-06 05:32 37.60576 148.78355 31307 ft 579 kts 57°
2026-05-06 05:32 37.64338 148.87341 31307 ft 579 kts 57°
2026-05-06 05:33 37.68093 148.96336 31315 ft 579 kts 57°
2026-05-06 05:33 37.71844 149.05347 31310 ft 580 kts 57°
2026-05-06 05:34 37.75588 149.14366 31311 ft 580 kts 57°
2026-05-06 05:34 37.79328 149.23401 31312 ft 580 kts 57°
2026-05-06 05:35 37.83060 149.32445 31315 ft 580 kts 58°
2026-05-06 05:35 37.86782 149.41490 31320 ft 579 kts 58°
2026-05-06 05:36 37.90490 149.50527 31301 ft 578 kts 58°
2026-05-06 05:36 37.94187 149.59561 31306 ft 577 kts 58°
2026-05-06 05:37 37.97871 149.68592 31309 ft 576 kts 58°
2026-05-06 05:37 38.01541 149.77614 31311 ft 575 kts 58°
2026-05-06 05:38 38.05203 149.86641 31310 ft 575 kts 59°
2026-05-06 05:38 38.08870 149.95642 31308 ft 573 kts 56°
2026-05-06 05:39 38.13231 150.04033 31309 ft 565 kts 45°
2026-05-06 05:39 38.18374 150.11509 31318 ft 562 kts 42°
2026-05-06 05:40 38.23582 150.18937 31315 ft 564 kts 43°
2026-05-06 05:40 38.28771 150.26444 31318 ft 566 kts 43°
2026-05-06 05:41 38.33944 150.34020 31312 ft 567 kts 44°
2026-05-06 05:41 38.39114 150.41627 31312 ft 568 kts 44°
2026-05-06 05:42 38.44284 150.49244 31307 ft 568 kts 44°
2026-05-06 05:42 38.49450 150.56865 31309 ft 567 kts 44°
2026-05-06 05:43 38.54614 150.64497 31307 ft 567 kts 44°
2026-05-06 05:43 38.59767 150.72130 31311 ft 567 kts 44°
2026-05-06 05:44 38.64913 150.79774 31311 ft 567 kts 44°
2026-05-06 05:44 38.70020 150.87380 31311 ft 567 kts 44°
2026-05-06 05:45 38.75157 150.95047 31302 ft 567 kts 44°
2026-05-06 05:45 38.80287 151.02723 31319 ft 567 kts 44°
2026-05-06 05:46 38.85424 151.10428 31314 ft 568 kts 44°
2026-05-06 05:46 38.90561 151.18152 31316 ft 568 kts 44°
2026-05-06 05:47 38.95693 151.25886 31312 ft 569 kts 44°
2026-05-06 05:47 39.00829 151.33646 31315 ft 570 kts 44°
2026-05-06 05:48 39.05963 151.41422 31317 ft 570 kts 44°
2026-05-06 05:48 39.11095 151.49216 31319 ft 570 kts 43°
2026-05-06 05:49 39.16226 151.57026 31317 ft 571 kts 43°
2026-05-06 05:49 39.21347 151.64841 31320 ft 570 kts 43°
2026-05-06 05:50 39.26462 151.72665 31316 ft 570 kts 43°
2026-05-06 05:50 39.31570 151.80498 31317 ft 570 kts 43°
2026-05-06 05:51 39.36637 151.88288 31316 ft 570 kts 43°
2026-05-06 05:51 39.41737 151.96147 31318 ft 569 kts 43°
2026-05-06 05:52 39.46823 152.04004 31317 ft 569 kts 43°
2026-05-06 05:52 39.51900 152.11868 31317 ft 569 kts 43°
2026-05-06 05:53 39.56966 152.19734 31313 ft 568 kts 43°
2026-05-06 05:53 39.62018 152.27598 31317 ft 567 kts 43°
2026-05-06 05:54 39.67060 152.35467 31314 ft 566 kts 43°
2026-05-06 05:54 39.72079 152.43319 31316 ft 565 kts 43°
2026-05-06 05:55 39.77087 152.51174 31312 ft 563 kts 43°
2026-05-06 05:55 39.82075 152.59017 31312 ft 562 kts 44°
2026-05-06 05:56 39.87041 152.66845 31308 ft 560 kts 44°
2026-05-06 05:56 39.91955 152.74610 31310 ft 559 kts 44°
2026-05-06 05:57 39.96886 152.82421 31309 ft 557 kts 44°
2026-05-06 05:57 40.01797 152.90220 31312 ft 555 kts 44°
2026-05-06 05:58 40.06689 152.98008 31302 ft 554 kts 45°
2026-05-06 05:58 40.11558 153.05780 31303 ft 552 kts 45°
2026-05-06 05:59 40.16416 153.13552 31307 ft 551 kts 45°
2026-05-06 05:59 40.21261 153.21322 31306 ft 550 kts 45°
2026-05-06 06:00 40.26088 153.29085 31304 ft 549 kts 45°
2026-05-06 06:00 40.30907 153.36853 31310 ft 549 kts 45°
2026-05-06 06:01 40.35707 153.44611 31305 ft 547 kts 46°
2026-05-06 06:01 40.40492 153.52365 31305 ft 546 kts 46°
2026-05-06 06:02 40.45264 153.60117 31302 ft 544 kts 46°
2026-05-06 06:02 40.50010 153.67845 31302 ft 543 kts 46°
2026-05-06 06:03 40.54739 153.75565 31298 ft 541 kts 46°
2026-05-06 06:03 40.59452 153.83276 31305 ft 541 kts 46°
2026-05-06 06:04 40.64159 153.90997 31309 ft 540 kts 47°
2026-05-06 06:04 40.68824 153.98669 31306 ft 539 kts 47°
2026-05-06 06:05 40.73505 154.06388 31295 ft 538 kts 47°
2026-05-06 06:05 40.78168 154.14096 31291 ft 536 kts 47°
2026-05-06 06:06 40.82810 154.21788 31280 ft 535 kts 47°
2026-05-06 06:06 40.87439 154.29478 31284 ft 534 kts 47°
2026-05-06 06:07 40.92052 154.37161 31296 ft 533 kts 48°
2026-05-06 06:07 40.96657 154.44849 31288 ft 532 kts 48°
2026-05-06 06:08 41.01247 154.52531 31284 ft 531 kts 48°
2026-05-06 06:08 41.05826 154.60213 31284 ft 531 kts 48°
2026-05-06 06:09 41.10392 154.67894 31284 ft 530 kts 48°
2026-05-06 06:09 41.14943 154.75569 31283 ft 529 kts 48°
2026-05-06 06:10 41.19488 154.83253 31278 ft 529 kts 49°
2026-05-06 06:10 41.23260 154.89644 31275 ft 528 kts 49°
2026-05-06 06:11 41.27791 154.97339 31274 ft 528 kts 49°
2026-05-06 06:11 41.32309 155.05033 31272 ft 528 kts 49°
2026-05-06 06:12 41.36821 155.12735 31267 ft 527 kts 49°
2026-05-06 06:12 41.41326 155.20445 31265 ft 527 kts 49°
2026-05-06 06:13 41.45828 155.28169 31264 ft 527 kts 49°
2026-05-06 06:13 41.50321 155.35896 31262 ft 527 kts 49°
2026-05-06 06:14 41.54809 155.43635 31260 ft 527 kts 49°
2026-05-06 06:14 41.59302 155.51402 31259 ft 527 kts 49°
2026-05-06 06:15 41.63781 155.59164 31256 ft 528 kts 49°
2026-05-06 06:15 41.68229 155.66895 31254 ft 528 kts 49°
2026-05-06 06:16 41.72703 155.74688 31249 ft 528 kts 49°
2026-05-06 06:16 41.77177 155.82502 31249 ft 528 kts 49°
2026-05-06 06:17 41.81640 155.90317 31247 ft 528 kts 49°
2026-05-06 06:17 41.86097 155.98143 31245 ft 528 kts 49°
2026-05-06 06:18 41.90551 156.05982 31243 ft 528 kts 49°
2026-05-06 06:18 41.95006 156.13843 31241 ft 528 kts 49°
2026-05-06 06:19 41.99450 156.21707 31241 ft 528 kts 49°
2026-05-06 06:19 42.03867 156.29541 31237 ft 529 kts 49°
2026-05-06 06:20 42.08305 156.37436 31239 ft 529 kts 49°
2026-05-06 06:20 42.12739 156.45341 31228 ft 529 kts 49°
2026-05-06 06:21 42.17168 156.53261 31226 ft 529 kts 49°
2026-05-06 06:21 42.21595 156.61196 31226 ft 529 kts 49°
2026-05-06 06:22 42.26018 156.69146 31220 ft 530 kts 49°
2026-05-06 06:22 42.30435 156.77105 31220 ft 530 kts 49°
2026-05-06 06:23 42.34849 156.85082 31219 ft 530 kts 49°
2026-05-06 06:23 42.39260 156.93072 31214 ft 530 kts 49°
2026-05-06 06:24 42.43669 157.01081 31211 ft 531 kts 49°
2026-05-06 06:24 42.48078 157.09111 31206 ft 531 kts 49°
2026-05-06 06:25 42.52454 157.17104 31210 ft 531 kts 49°
2026-05-06 06:26 42.59052 157.29194 31193 ft 532 kts 49°
2026-05-06 06:26 42.63451 157.37281 31193 ft 533 kts 49°
2026-05-06 06:27 42.67848 157.45387 31188 ft 533 kts 49°
2026-05-06 06:27 42.72243 157.53513 31179 ft 534 kts 49°
2026-05-06 06:28 42.76639 157.61662 31182 ft 534 kts 49°
2026-05-06 06:28 42.81032 157.69827 31178 ft 535 kts 49°
2026-05-06 06:29 42.85426 157.78018 31168 ft 535 kts 49°
2026-05-06 06:29 42.89818 157.86225 31168 ft 536 kts 49°
2026-05-06 06:30 42.94210 157.94456 31163 ft 536 kts 49°
2026-05-06 06:30 42.98595 158.02698 31158 ft 536 kts 49°
2026-05-06 06:31 43.02976 158.10955 31157 ft 536 kts 49°
2026-05-06 06:31 43.07356 158.19233 31151 ft 536 kts 49°
2026-05-06 06:32 43.11724 158.27512 31157 ft 537 kts 49°
2026-05-06 06:32 43.16061 158.35752 31153 ft 537 kts 49°
2026-05-06 06:33 43.20451 158.44118 31143 ft 537 kts 49°
2026-05-06 06:33 43.24775 158.52383 31145 ft 537 kts 49°
2026-05-06 06:34 43.29124 158.60718 31131 ft 537 kts 49°
2026-05-06 06:34 43.33475 158.69080 31131 ft 538 kts 49°
2026-05-06 06:35 43.37817 158.77449 31125 ft 538 kts 49°
2026-05-06 06:35 43.42158 158.85840 31126 ft 538 kts 49°
2026-05-06 06:36 43.46494 158.94245 31123 ft 538 kts 49°
2026-05-06 06:36 43.50821 159.02656 31118 ft 539 kts 49°
2026-05-06 06:37 43.55151 159.11097 31113 ft 539 kts 49°
2026-05-06 06:37 43.59470 159.19541 31104 ft 539 kts 49°
2026-05-06 06:38 43.63782 159.27997 31107 ft 539 kts 49°
2026-05-06 06:38 43.68094 159.36475 31102 ft 539 kts 49°
2026-05-06 06:39 43.72395 159.44957 31096 ft 539 kts 49°
2026-05-06 06:39 43.76700 159.53472 31095 ft 539 kts 49°
2026-05-06 06:40 43.80991 159.61985 31095 ft 540 kts 49°
2026-05-06 06:40 43.85282 159.70522 31087 ft 540 kts 49°
2026-05-06 06:41 43.89540 159.79018 31088 ft 540 kts 49°
2026-05-06 06:41 43.93849 159.87642 31082 ft 540 kts 49°
2026-05-06 06:42 43.98098 159.96169 31079 ft 541 kts 49°
2026-05-06 06:42 44.02559 160.04515 31076 ft 535 kts 44°
2026-05-06 06:43 44.07308 160.12481 31074 ft 535 kts 43°
2026-05-06 06:43 44.12081 160.20439 31070 ft 536 kts 43°
2026-05-06 06:44 44.16832 160.28451 31064 ft 536 kts 43°
2026-05-06 06:44 44.21560 160.36498 31060 ft 537 kts 43°
2026-05-06 06:45 44.26283 160.44572 31058 ft 537 kts 43°
2026-05-06 06:45 44.31001 160.52657 31050 ft 537 kts 43°
2026-05-06 06:46 44.35714 160.60749 31044 ft 537 kts 43°
2026-05-06 06:46 44.40424 160.68857 31040 ft 537 kts 43°
2026-05-06 06:47 44.45130 160.76983 31035 ft 537 kts 43°
2026-05-06 06:47 44.49831 160.85122 31031 ft 537 kts 43°
2026-05-06 06:48 44.54525 160.93274 31028 ft 537 kts 43°
2026-05-06 06:48 44.59182 161.01383 31023 ft 537 kts 43°
2026-05-06 06:49 44.63866 161.09564 31017 ft 538 kts 43°
2026-05-06 06:49 44.68548 161.17764 31017 ft 538 kts 43°
2026-05-06 06:50 44.73219 161.25967 31009 ft 538 kts 43°
2026-05-06 06:50 44.77889 161.34194 31009 ft 538 kts 43°
2026-05-06 06:51 44.82555 161.42436 31004 ft 538 kts 43°
2026-05-06 06:51 44.87217 161.50695 31000 ft 539 kts 43°
2026-05-06 06:52 44.91877 161.58975 31001 ft 539 kts 43°
2026-05-06 06:52 44.96531 161.67270 30997 ft 539 kts 43°
2026-05-06 06:53 45.01187 161.75591 30992 ft 539 kts 43°
2026-05-06 06:53 45.05838 161.83928 30989 ft 539 kts 43°
2026-05-06 06:54 45.10475 161.92265 30989 ft 540 kts 43°
2026-05-06 06:54 45.15117 162.00634 30985 ft 540 kts 43°
2026-05-06 06:55 45.19746 162.09005 30990 ft 540 kts 43°
2026-05-06 06:55 45.21287 162.11794 31097 ft 542 kts 43°
2026-05-06 06:55 45.23608 162.16004 31431 ft 541 kts 43°
2026-05-06 06:55 45.25913 162.20197 31823 ft 539 kts 43°
2026-05-06 06:56 45.28215 162.24389 32195 ft 537 kts 43°
2026-05-06 06:56 45.30508 162.28570 32510 ft 536 kts 43°
2026-05-06 06:56 45.32799 162.32750 32789 ft 537 kts 43°
2026-05-06 06:56 45.35096 162.36943 32910 ft 540 kts 43°
2026-05-06 06:57 45.37411 162.41171 32954 ft 541 kts 43°
2026-05-06 06:57 45.42002 162.49599 32939 ft 536 kts 43°
2026-05-06 06:58 45.46552 162.57980 32954 ft 535 kts 43°
2026-05-06 06:58 45.51104 162.66373 32949 ft 536 kts 43°
2026-05-06 06:59 45.55656 162.74792 32944 ft 537 kts 43°
2026-05-06 06:59 45.60217 162.83256 32938 ft 538 kts 43°
2026-05-06 07:00 45.64741 162.91680 32936 ft 538 kts 43°
2026-05-06 07:00 45.69292 163.00182 32930 ft 539 kts 43°
2026-05-06 07:01 45.73848 163.08715 32926 ft 540 kts 43°
2026-05-06 07:01 45.78401 163.17269 32914 ft 540 kts 43°
2026-05-06 07:02 45.82952 163.25847 32909 ft 540 kts 43°
2026-05-06 07:02 45.87497 163.34438 32905 ft 540 kts 43°
2026-05-06 07:03 45.92030 163.43033 32904 ft 540 kts 43°
2026-05-06 07:03 45.96562 163.51654 32895 ft 540 kts 43°
2026-05-06 07:04 46.01086 163.60284 32896 ft 540 kts 43°
2026-05-06 07:04 46.05611 163.68940 32899 ft 541 kts 43°
2026-05-06 07:05 46.10128 163.77610 32897 ft 541 kts 43°
2026-05-06 07:05 46.14648 163.86313 32898 ft 542 kts 43°
2026-05-06 07:06 46.19164 163.95035 32883 ft 543 kts 44°
2026-05-06 07:06 46.23683 164.03790 32887 ft 544 kts 44°
2026-05-06 07:07 46.28207 164.12582 32883 ft 545 kts 44°
2026-05-06 07:07 46.32721 164.21383 32883 ft 545 kts 44°
2026-05-06 07:08 46.37212 164.30167 32884 ft 546 kts 44°
2026-05-06 07:08 46.41731 164.39035 32877 ft 547 kts 44°
2026-05-06 07:09 46.46244 164.47917 32873 ft 547 kts 44°
2026-05-06 07:09 46.50751 164.56817 32869 ft 547 kts 44°
2026-05-06 07:10 46.55249 164.65727 32862 ft 547 kts 44°
2026-05-06 07:10 46.59743 164.74658 32854 ft 547 kts 44°
2026-05-06 07:11 46.64233 164.83610 32857 ft 547 kts 45°
2026-05-06 07:11 46.68714 164.92572 32859 ft 547 kts 45°
2026-05-06 07:12 46.73186 165.01544 32857 ft 547 kts 45°
2026-05-06 07:12 46.77654 165.10538 32854 ft 547 kts 45°
2026-05-06 07:13 46.82116 165.19549 32850 ft 547 kts 45°
2026-05-06 07:13 46.86568 165.28570 32841 ft 547 kts 45°
2026-05-06 07:14 46.91009 165.37596 32844 ft 547 kts 45°
2026-05-06 07:14 46.95448 165.46649 32838 ft 547 kts 45°
2026-05-06 07:15 46.99879 165.55713 32835 ft 547 kts 46°
2026-05-06 07:15 47.04298 165.64784 32836 ft 547 kts 46°
2026-05-06 07:16 47.08712 165.73874 32830 ft 547 kts 46°
2026-05-06 07:16 47.13122 165.82985 32815 ft 547 kts 46°
2026-05-06 07:17 47.17525 165.92113 32816 ft 547 kts 46°
2026-05-06 07:17 47.21920 166.01253 32821 ft 547 kts 46°
2026-05-06 07:18 47.26303 166.10400 32815 ft 547 kts 46°
2026-05-06 07:18 47.30686 166.19577 32819 ft 547 kts 47°
2026-05-06 07:19 47.35060 166.28763 32814 ft 548 kts 47°
2026-05-06 07:19 47.39429 166.37973 32806 ft 548 kts 47°
2026-05-06 07:20 47.43791 166.47199 32804 ft 547 kts 47°
2026-05-06 07:20 47.48137 166.56420 32804 ft 547 kts 47°
2026-05-06 07:21 47.52471 166.65648 32803 ft 546 kts 47°
2026-05-06 07:21 47.56799 166.74892 32799 ft 546 kts 48°
2026-05-06 07:22 47.61111 166.84134 32801 ft 545 kts 48°
2026-05-06 07:22 47.65417 166.93395 32795 ft 545 kts 48°
2026-05-06 07:23 47.69709 167.02656 32792 ft 545 kts 48°
2026-05-06 07:23 47.73999 167.11943 32791 ft 545 kts 49°
2026-05-06 07:24 47.78277 167.21237 32794 ft 544 kts 49°
2026-05-06 07:24 47.82544 167.30542 32790 ft 545 kts 49°
2026-05-06 07:25 47.86807 167.39866 32784 ft 544 kts 49°
2026-05-06 07:25 47.91058 167.49198 32775 ft 544 kts 49°
2026-05-06 07:26 47.95309 167.58560 32785 ft 544 kts 50°
2026-05-06 07:26 47.99540 167.67910 32771 ft 543 kts 50°
2026-05-06 07:27 48.03732 167.77207 32766 ft 543 kts 50°
2026-05-06 07:27 48.07947 167.86587 32772 ft 543 kts 50°
2026-05-06 07:28 48.12151 167.95972 32779 ft 543 kts 50°
2026-05-06 07:28 48.18448 168.10096 32775 ft 543 kts 51°
2026-05-06 07:29 48.22630 168.19515 32775 ft 543 kts 51°
2026-05-06 07:29 48.26804 168.28948 32768 ft 542 kts 51°
2026-05-06 07:30 48.30967 168.38392 32762 ft 542 kts 51°
2026-05-06 07:30 48.35123 168.47851 32763 ft 541 kts 52°
2026-05-06 07:31 48.39260 168.57300 32759 ft 541 kts 52°
2026-05-06 07:31 48.43388 168.66763 32761 ft 540 kts 52°
2026-05-06 07:32 48.47477 168.76165 32754 ft 539 kts 52°
2026-05-06 07:32 48.51578 168.85633 32764 ft 539 kts 52°
2026-05-06 07:33 48.55664 168.95095 32747 ft 538 kts 52°
2026-05-06 07:33 48.59746 169.04583 32752 ft 538 kts 53°
2026-05-06 07:34 48.63813 169.14070 32754 ft 537 kts 53°
2026-05-06 07:34 48.67870 169.23568 32749 ft 536 kts 53°
2026-05-06 07:35 48.71907 169.33052 32750 ft 535 kts 53°
2026-05-06 07:35 48.75929 169.42533 32748 ft 535 kts 53°
2026-05-06 07:36 48.79916 169.51967 32749 ft 534 kts 54°
2026-05-06 07:36 48.83913 169.61456 32745 ft 533 kts 54°
2026-05-06 07:37 48.87896 169.70945 32745 ft 532 kts 54°
2026-05-06 07:37 48.91866 169.80441 32747 ft 532 kts 54°
2026-05-06 07:38 48.95825 169.89941 32748 ft 531 kts 54°
2026-05-06 07:38 48.99131 169.97896 32740 ft 531 kts 54°
2026-05-06 07:39 49.03307 170.07121 32749 ft 528 kts 51°
2026-05-06 07:39 49.07673 170.16140 32742 ft 528 kts 50°
2026-05-06 07:40 49.12041 170.25157 32739 ft 528 kts 51°
2026-05-06 07:40 49.16378 170.34225 32742 ft 529 kts 51°
2026-05-06 07:41 49.20665 170.43265 32742 ft 528 kts 51°
2026-05-06 07:41 49.24970 170.52380 32737 ft 528 kts 51°
2026-05-06 07:42 49.29264 170.61501 32739 ft 528 kts 52°
2026-05-06 07:42 49.33576 170.70686 32740 ft 527 kts 52°
2026-05-06 07:43 49.37819 170.79754 32734 ft 527 kts 52°
2026-05-06 07:43 49.42081 170.88892 32733 ft 526 kts 52°
2026-05-06 07:44 49.46334 170.98044 32735 ft 525 kts 52°
2026-05-06 07:44 49.50576 171.07203 32730 ft 525 kts 52°
2026-05-06 07:45 49.54804 171.16364 32732 ft 525 kts 52°
2026-05-06 07:45 49.59020 171.25532 32730 ft 524 kts 53°
2026-05-06 07:46 49.63226 171.34707 32727 ft 524 kts 53°
2026-05-06 07:46 49.67425 171.43902 32726 ft 524 kts 53°
2026-05-06 07:47 49.71615 171.53105 32726 ft 523 kts 53°
2026-05-06 07:47 49.75801 171.62332 32721 ft 523 kts 53°
2026-05-06 07:48 49.79969 171.71553 32727 ft 523 kts 53°
2026-05-06 07:48 49.84133 171.80796 32720 ft 523 kts 54°
2026-05-06 07:49 49.88283 171.90042 32720 ft 523 kts 54°
2026-05-06 07:49 49.92432 171.99316 32716 ft 523 kts 54°
2026-05-06 07:50 49.96575 172.08611 32714 ft 523 kts 54°
2026-05-06 07:50 50.00706 172.17911 32711 ft 523 kts 54°
2026-05-06 07:51 50.04826 172.27218 32710 ft 523 kts 54°
2026-05-06 07:51 50.08919 172.36498 32709 ft 523 kts 54°
2026-05-06 07:52 50.13030 172.45851 32706 ft 523 kts 54°
2026-05-06 07:52 50.17131 172.55213 32706 ft 523 kts 55°
2026-05-06 07:53 50.21223 172.64589 32704 ft 522 kts 55°
2026-05-06 07:53 50.25307 172.73981 32703 ft 522 kts 55°
2026-05-06 07:54 50.29376 172.83371 32700 ft 522 kts 55°
2026-05-06 07:54 50.33437 172.92777 32696 ft 521 kts 55°
2026-05-06 07:55 50.37487 173.02189 32699 ft 520 kts 56°
2026-05-06 07:55 50.41518 173.11592 32698 ft 520 kts 56°
2026-05-06 07:56 50.45539 173.21004 32693 ft 519 kts 56°
2026-05-06 07:56 50.49553 173.30435 32696 ft 519 kts 56°
2026-05-06 07:57 50.53554 173.39869 32693 ft 519 kts 56°
2026-05-06 07:57 50.57549 173.49324 32691 ft 519 kts 56°
2026-05-06 07:58 50.61542 173.58807 32688 ft 519 kts 57°
2026-05-06 07:58 50.65496 173.68232 32684 ft 518 kts 57°
2026-05-06 07:59 50.69460 173.77715 32687 ft 517 kts 57°
2026-05-06 07:59 50.73407 173.87192 32684 ft 517 kts 57°
2026-05-06 08:00 50.77347 173.96685 32681 ft 516 kts 57°
2026-05-06 08:00 50.81282 174.06202 32679 ft 516 kts 57°
2026-05-06 08:01 50.85198 174.15707 32679 ft 516 kts 58°
2026-05-06 08:01 50.89105 174.25224 32675 ft 515 kts 58°
2026-05-06 08:02 50.93006 174.34763 32671 ft 515 kts 58°
2026-05-06 08:02 50.96898 174.44315 32672 ft 515 kts 58°
2026-05-06 08:03 51.00782 174.53881 32671 ft 515 kts 58°
2026-05-06 08:03 51.04648 174.63440 32673 ft 514 kts 58°
2026-05-06 08:04 51.08507 174.73014 32676 ft 514 kts 59°
2026-05-06 08:04 51.12352 174.82591 32664 ft 513 kts 59°
2026-05-06 08:05 51.16182 174.92166 32669 ft 512 kts 59°
2026-05-06 08:05 51.20000 175.01745 32665 ft 512 kts 59°
2026-05-06 08:06 51.23807 175.11333 32663 ft 511 kts 59°
2026-05-06 08:06 51.27601 175.20923 32665 ft 510 kts 60°
2026-05-06 08:07 51.31380 175.30511 32662 ft 510 kts 60°
2026-05-06 08:07 51.35152 175.40118 32658 ft 510 kts 60°
2026-05-06 08:08 51.38914 175.49734 32665 ft 509 kts 60°
2026-05-06 08:08 51.42665 175.59358 32663 ft 509 kts 60°
2026-05-06 08:09 51.46402 175.68983 32662 ft 509 kts 60°
2026-05-06 08:09 51.50133 175.78626 32656 ft 508 kts 61°
2026-05-06 08:10 51.53852 175.88277 32664 ft 508 kts 61°
2026-05-06 08:10 51.57563 175.97942 32665 ft 508 kts 61°
2026-05-06 08:11 51.61245 176.07570 32680 ft 508 kts 62°
2026-05-06 08:11 51.64944 176.17276 32680 ft 509 kts 62°
2026-05-06 08:12 51.68658 176.27062 32680 ft 508 kts 62°
2026-05-06 08:12 51.72309 176.36718 32685 ft 508 kts 62°
2026-05-06 08:13 51.75981 176.46462 32689 ft 507 kts 63°
2026-05-06 08:13 51.79634 176.56193 32691 ft 507 kts 63°
2026-05-06 08:14 51.83272 176.65927 32701 ft 505 kts 63°
2026-05-06 08:14 51.86895 176.75655 32701 ft 505 kts 63°
2026-05-06 08:15 51.90507 176.85395 32715 ft 504 kts 63°
2026-05-06 08:15 51.94130 176.95198 32717 ft 504 kts 63°
2026-05-06 08:16 51.97701 177.04895 32727 ft 504 kts 63°
2026-05-06 08:16 52.01286 177.14668 32726 ft 503 kts 63°
2026-05-06 08:17 52.04853 177.24432 32733 ft 502 kts 64°
2026-05-06 08:17 52.08407 177.34195 32737 ft 501 kts 64°
2026-05-06 08:18 52.11946 177.43957 32738 ft 500 kts 64°
2026-05-06 08:18 52.15469 177.53714 32750 ft 499 kts 64°
2026-05-06 08:19 52.18976 177.63463 32758 ft 499 kts 64°
2026-05-06 08:19 52.22474 177.73226 32748 ft 498 kts 65°
2026-05-06 08:20 52.25961 177.82995 32772 ft 498 kts 65°
2026-05-06 08:20 52.28875 177.91189 32776 ft 498 kts 65°
2026-05-06 08:21 52.32341 178.00967 32783 ft 497 kts 65°
2026-05-06 08:21 52.35775 178.10695 32790 ft 497 kts 65°
2026-05-06 08:22 52.39222 178.20498 32800 ft 497 kts 65°
2026-05-06 08:22 52.42660 178.30311 32806 ft 497 kts 65°
2026-05-06 08:23 52.46089 178.40139 32812 ft 496 kts 66°
2026-05-06 08:23 52.49508 178.49975 32818 ft 496 kts 66°
2026-05-06 08:24 52.52916 178.59821 32825 ft 496 kts 66°
2026-05-06 08:24 52.56310 178.69665 32831 ft 495 kts 66°
2026-05-06 08:25 52.59699 178.79530 32835 ft 495 kts 66°
2026-05-06 08:25 52.63076 178.89402 32844 ft 495 kts 66°
2026-05-06 08:26 52.66443 178.99284 32849 ft 494 kts 66°
2026-05-06 08:26 52.69798 179.09170 32852 ft 494 kts 66°
2026-05-06 08:27 52.73145 179.19072 32858 ft 494 kts 66°
2026-05-06 08:27 52.76479 179.28975 32862 ft 494 kts 66°
2026-05-06 08:28 52.79806 179.38899 32867 ft 494 kts 67°
2026-05-06 08:28 52.83124 179.48831 32875 ft 494 kts 67°
2026-05-06 08:29 52.86436 179.58791 32880 ft 494 kts 67°
2026-05-06 08:29 52.89738 179.68759 32899 ft 494 kts 67°
2026-05-06 08:30 52.93016 179.78693 32893 ft 494 kts 67°
2026-05-06 08:30 52.96307 179.88708 32901 ft 495 kts 67°
2026-05-06 08:31 52.99593 179.98744 32906 ft 495 kts 67°
2026-05-06 08:31 53.02729 -179.91114 32906 ft 492 kts 70°
2026-05-06 08:32 53.05665 -179.80850 32913 ft 492 kts 71°
2026-05-06 08:32 53.08590 -179.70564 32916 ft 492 kts 70°
2026-05-06 08:33 53.11536 -179.60293 32926 ft 492 kts 70°
2026-05-06 08:33 53.14485 -179.50035 32928 ft 491 kts 70°
2026-05-06 08:34 53.18901 -179.34607 32936 ft 491 kts 70°
2026-05-06 08:35 53.21824 -179.24333 32937 ft 491 kts 70°
2026-05-06 08:35 53.24723 -179.14091 32951 ft 491 kts 71°
2026-05-06 08:36 53.27631 -179.03773 32952 ft 492 kts 70°
2026-05-06 08:36 53.30540 -178.93408 32957 ft 493 kts 71°
2026-05-06 08:37 53.33442 -178.83017 32961 ft 494 kts 71°
2026-05-06 08:37 53.36344 -178.72588 32966 ft 495 kts 70°
2026-05-06 08:38 53.39244 -178.62114 32973 ft 496 kts 70°
2026-05-06 08:38 53.42137 -178.51616 32984 ft 497 kts 70°
2026-05-06 08:39 53.45028 -178.41080 32985 ft 498 kts 70°
2026-05-06 08:39 53.47913 -178.30520 32985 ft 498 kts 70°
2026-05-06 08:40 53.50794 -178.19926 32997 ft 498 kts 70°
2026-05-06 08:40 53.53663 -178.09325 33001 ft 498 kts 70°
2026-05-06 08:41 53.56525 -177.98702 33003 ft 498 kts 70°
2026-05-06 08:41 53.59376 -177.88070 33014 ft 498 kts 70°
2026-05-06 08:42 53.62215 -177.77431 33013 ft 498 kts 70°
2026-05-06 08:42 53.65045 -177.66778 33021 ft 498 kts 70°
2026-05-06 08:43 53.67865 -177.56112 33026 ft 498 kts 70°
2026-05-06 08:43 53.70672 -177.45444 33031 ft 498 kts 70°
2026-05-06 08:44 53.73474 -177.34746 33035 ft 498 kts 70°
2026-05-06 08:44 53.76267 -177.24032 33035 ft 499 kts 70°
2026-05-06 08:45 53.79059 -177.13268 33042 ft 499 kts 70°
2026-05-06 08:45 53.81842 -177.02492 33051 ft 500 kts 70°
2026-05-06 08:46 53.84621 -176.91675 33048 ft 502 kts 70°
2026-05-06 08:46 53.87400 -176.80808 33050 ft 503 kts 70°
2026-05-06 08:47 53.90177 -176.69896 33064 ft 505 kts 69°
2026-05-06 08:47 53.92950 -176.58943 33052 ft 506 kts 69°
2026-05-06 08:48 53.95720 -176.47954 33067 ft 507 kts 69°
2026-05-06 08:48 53.98488 -176.36913 33076 ft 508 kts 69°
2026-05-06 08:49 54.01249 -176.25849 33068 ft 508 kts 69°
2026-05-06 08:49 54.03996 -176.14782 33077 ft 508 kts 69°
2026-05-06 08:50 54.06730 -176.03715 33076 ft 507 kts 69°
2026-05-06 08:50 54.09436 -175.92702 33079 ft 507 kts 69°
2026-05-06 08:51 54.12146 -175.81619 33090 ft 506 kts 69°
2026-05-06 08:51 54.14861 -175.70460 33085 ft 506 kts 69°
2026-05-06 08:52 54.17529 -175.59438 33092 ft 506 kts 69°
2026-05-06 08:52 54.20202 -175.48335 33095 ft 505 kts 69°
2026-05-06 08:53 54.22863 -175.37230 33100 ft 505 kts 69°
2026-05-06 08:53 54.25515 -175.26105 33104 ft 505 kts 69°
2026-05-06 08:54 54.28154 -175.14973 33108 ft 504 kts 69°
2026-05-06 08:54 54.30779 -175.03845 33107 ft 505 kts 69°
2026-05-06 08:55 54.33399 -174.92683 33109 ft 505 kts 69°
2026-05-06 08:55 54.36011 -174.81497 33113 ft 506 kts 69°
2026-05-06 08:56 54.38614 -174.70285 33117 ft 506 kts 69°
2026-05-06 08:56 54.41211 -174.59047 33118 ft 506 kts 69°
2026-05-06 08:57 54.43797 -174.47793 33120 ft 506 kts 69°
2026-05-06 08:57 54.46373 -174.36524 33127 ft 506 kts 69°
2026-05-06 08:58 54.48935 -174.25256 33127 ft 506 kts 69°
2026-05-06 08:58 54.51483 -174.13986 33127 ft 505 kts 69°
2026-05-06 08:59 54.54018 -174.02717 33133 ft 505 kts 69°
2026-05-06 08:59 54.56545 -173.91422 33141 ft 506 kts 69°
2026-05-06 09:00 54.59067 -173.80087 33141 ft 507 kts 69°
2026-05-06 09:00 54.61585 -173.68714 33147 ft 508 kts 69°
2026-05-06 09:01 54.64090 -173.57333 33145 ft 507 kts 69°
2026-05-06 09:01 54.66579 -173.45960 33152 ft 506 kts 69°
2026-05-06 09:02 54.69051 -173.34607 33150 ft 504 kts 69°
2026-05-06 09:02 54.71095 -173.25169 33156 ft 504 kts 69°
2026-05-06 09:03 54.73542 -173.13815 33157 ft 503 kts 69°
2026-05-06 09:03 54.76370 -173.00614 33166 ft 503 kts 69°
2026-05-06 09:04 54.78791 -172.89241 33172 ft 504 kts 69°
2026-05-06 09:04 54.80817 -172.79677 33172 ft 504 kts 69°
2026-05-06 09:05 54.83226 -172.68249 33167 ft 505 kts 69°
2026-05-06 09:05 54.85628 -172.56785 33170 ft 506 kts 69°
2026-05-06 09:06 54.88020 -172.45306 33174 ft 506 kts 69°
2026-05-06 09:06 54.90386 -172.33885 33174 ft 506 kts 69°
2026-05-06 09:07 54.92772 -172.22298 33177 ft 505 kts 69°
2026-05-06 09:07 54.95129 -172.10788 33178 ft 505 kts 69°
2026-05-06 09:08 54.97462 -171.99330 33182 ft 505 kts 69°
2026-05-06 09:08 54.99811 -171.87727 33182 ft 504 kts 69°
2026-05-06 09:09 55.02117 -171.76270 33189 ft 504 kts 69°
2026-05-06 09:09 55.04423 -171.64742 33187 ft 504 kts 69°
2026-05-06 09:10 55.06719 -171.53202 33191 ft 503 kts 69°
2026-05-06 09:10 55.08999 -171.41670 33195 ft 503 kts 69°
2026-05-06 09:11 55.11270 -171.30117 33198 ft 502 kts 69°
2026-05-06 09:11 55.13524 -171.18580 33202 ft 502 kts 69°
2026-05-06 09:12 55.15770 -171.07016 33198 ft 502 kts 69°
2026-05-06 09:12 55.18004 -170.95445 33200 ft 502 kts 69°
2026-05-06 09:13 55.20225 -170.83872 33196 ft 502 kts 69°
2026-05-06 09:13 55.22437 -170.72276 33205 ft 502 kts 69°
2026-05-06 09:14 55.24640 -170.60652 33205 ft 502 kts 69°
2026-05-06 09:14 55.26831 -170.49028 33207 ft 502 kts 69°
2026-05-06 09:15 55.28998 -170.37454 33206 ft 503 kts 69°
2026-05-06 09:15 55.31169 -170.25787 33207 ft 503 kts 69°
2026-05-06 09:16 55.33329 -170.14112 33209 ft 503 kts 69°
2026-05-06 09:16 55.35476 -170.02428 33210 ft 503 kts 69°
2026-05-06 09:17 55.37612 -169.90732 33216 ft 503 kts 69°
2026-05-06 09:17 55.39738 -169.79022 33215 ft 503 kts 69°
2026-05-06 09:18 55.41855 -169.67285 33216 ft 503 kts 69°
2026-05-06 09:18 55.43958 -169.55546 33216 ft 503 kts 69°
2026-05-06 09:19 55.46052 -169.43783 33213 ft 503 kts 69°
2026-05-06 09:19 55.48136 -169.32005 33229 ft 503 kts 68°
2026-05-06 09:20 55.50209 -169.20221 33215 ft 503 kts 68°
2026-05-06 09:20 55.52324 -169.08447 33213 ft 503 kts 67°
2026-05-06 09:21 55.54519 -168.96739 33216 ft 502 kts 67°
2026-05-06 09:21 55.56708 -168.85031 33214 ft 502 kts 67°
2026-05-06 09:22 55.58875 -168.73286 33221 ft 502 kts 67°
2026-05-06 09:22 55.61004 -168.61620 33220 ft 502 kts 67°
2026-05-06 09:23 55.63135 -168.49860 33219 ft 502 kts 68°
2026-05-06 09:23 55.65255 -168.38087 33220 ft 501 kts 68°
2026-05-06 09:24 55.67363 -168.26313 33219 ft 501 kts 68°
2026-05-06 09:24 55.69458 -168.14531 33222 ft 501 kts 68°
2026-05-06 09:25 55.71542 -168.02737 33223 ft 501 kts 68°
2026-05-06 09:25 55.73614 -167.90937 33222 ft 501 kts 68°
2026-05-06 09:26 55.75676 -167.79113 33219 ft 501 kts 68°
2026-05-06 09:26 55.77725 -167.67290 33228 ft 501 kts 68°
2026-05-06 09:27 55.79765 -167.55437 33226 ft 501 kts 68°
2026-05-06 09:27 55.81795 -167.43569 33219 ft 502 kts 68°
2026-05-06 09:28 55.83813 -167.31687 33218 ft 502 kts 68°
2026-05-06 09:28 55.85821 -167.19787 33218 ft 501 kts 68°
2026-05-06 09:29 55.87815 -167.07892 33220 ft 501 kts 69°
2026-05-06 09:29 55.89797 -166.95983 33222 ft 501 kts 69°
2026-05-06 09:30 55.91765 -166.84076 33220 ft 501 kts 69°
2026-05-06 09:30 55.93722 -166.72157 33219 ft 501 kts 69°
2026-05-06 09:31 55.95666 -166.60236 33217 ft 501 kts 69°
2026-05-06 09:31 55.97599 -166.48298 33215 ft 500 kts 69°
2026-05-06 09:32 55.99521 -166.36349 33212 ft 500 kts 69°
2026-05-06 09:32 56.01430 -166.24388 33215 ft 500 kts 70°
2026-05-06 09:33 56.03329 -166.12416 33216 ft 501 kts 70°
2026-05-06 09:33 56.05217 -166.00422 33216 ft 501 kts 70°
2026-05-06 09:34 56.07081 -165.88495 33217 ft 501 kts 70°
2026-05-06 09:34 56.08946 -165.76474 33216 ft 501 kts 71°
2026-05-06 09:35 56.10801 -165.64434 33217 ft 501 kts 71°
2026-05-06 09:35 56.12643 -165.52392 33215 ft 501 kts 71°
2026-05-06 09:36 56.14476 -165.40317 33215 ft 502 kts 71°
2026-05-06 09:36 56.16298 -165.28225 33216 ft 502 kts 71°
2026-05-06 09:37 56.18108 -165.16123 33214 ft 502 kts 72°
2026-05-06 09:37 56.19908 -165.04000 33214 ft 502 kts 72°
2026-05-06 09:38 56.21698 -164.91853 33218 ft 502 kts 72°
2026-05-06 09:38 56.23474 -164.79709 33213 ft 503 kts 72°
2026-05-06 09:39 56.25239 -164.67545 33217 ft 503 kts 73°
2026-05-06 09:39 56.26991 -164.55376 33211 ft 503 kts 73°
2026-05-06 09:40 56.28735 -164.43173 33218 ft 503 kts 73°
2026-05-06 09:40 56.31324 -164.24875 33209 ft 503 kts 73°
2026-05-06 09:41 56.33038 -164.12644 33205 ft 503 kts 73°
2026-05-06 09:41 56.34735 -164.00430 33206 ft 502 kts 74°
2026-05-06 09:42 56.36419 -163.88221 33208 ft 502 kts 74°
2026-05-06 09:42 56.38091 -163.75994 33207 ft 501 kts 74°
2026-05-06 09:43 56.39750 -163.63772 33212 ft 501 kts 74°
2026-05-06 09:43 56.41395 -163.51550 33209 ft 501 kts 74°
2026-05-06 09:44 56.43026 -163.39327 33204 ft 500 kts 75°
2026-05-06 09:44 56.44645 -163.27097 33211 ft 500 kts 75°
2026-05-06 09:45 56.46243 -163.14928 33205 ft 500 kts 75°
2026-05-06 09:45 56.47579 -163.04674 33206 ft 500 kts 75°
2026-05-06 09:46 56.49163 -162.92428 33203 ft 500 kts 75°
2026-05-06 09:46 56.50735 -162.80167 33200 ft 500 kts 75°
2026-05-06 09:47 56.52292 -162.67915 33201 ft 500 kts 75°
2026-05-06 09:47 56.53839 -162.55640 33202 ft 499 kts 75°
2026-05-06 09:48 56.55373 -162.43363 33199 ft 499 kts 75°
2026-05-06 09:48 56.56894 -162.31082 33197 ft 499 kts 75°
2026-05-06 09:49 56.58403 -162.18790 33194 ft 499 kts 75°
2026-05-06 09:49 56.59901 -162.06475 33193 ft 499 kts 75°
2026-05-06 09:50 56.61385 -161.94175 33197 ft 499 kts 75°
2026-05-06 09:50 56.62856 -161.81865 33198 ft 499 kts 76°
2026-05-06 09:51 56.64317 -161.69525 33192 ft 499 kts 76°
2026-05-06 09:51 56.65765 -161.57189 33189 ft 499 kts 76°
2026-05-06 09:52 56.67200 -161.44854 33188 ft 499 kts 76°
2026-05-06 09:52 56.68622 -161.32511 33187 ft 499 kts 76°
2026-05-06 09:53 56.70032 -161.20151 33184 ft 499 kts 76°
2026-05-06 09:53 56.71430 -161.07785 33186 ft 499 kts 76°
2026-05-06 09:54 56.72817 -160.95401 33183 ft 499 kts 76°
2026-05-06 09:54 56.74191 -160.83010 33182 ft 499 kts 76°
2026-05-06 09:55 56.75554 -160.70604 33174 ft 499 kts 76°
2026-05-06 09:55 56.76904 -160.58194 33176 ft 500 kts 76°
2026-05-06 09:56 56.78244 -160.45747 33182 ft 500 kts 76°
2026-05-06 09:56 56.79574 -160.33295 33181 ft 500 kts 76°
2026-05-06 09:57 56.80865 -160.20810 33176 ft 501 kts 77°
2026-05-06 09:57 56.82099 -160.08281 33181 ft 502 kts 77°
2026-05-06 09:58 56.83322 -159.95730 33175 ft 502 kts 77°
2026-05-06 09:58 56.84534 -159.83246 33178 ft 502 kts 77°
2026-05-06 09:59 56.85752 -159.70590 33169 ft 503 kts 77°
2026-05-06 09:59 56.86943 -159.58074 33168 ft 503 kts 77°
2026-05-06 10:00 56.88130 -159.45458 33169 ft 504 kts 77°
2026-05-06 10:00 56.88720 -159.39126 33168 ft 504 kts 77°
2026-05-06 10:01 56.89570 -159.29950 33163 ft 504 kts 77°
2026-05-06 10:01 56.90730 -159.17301 33170 ft 505 kts 77°
2026-05-06 10:02 56.91879 -159.04622 33171 ft 505 kts 77°
2026-05-06 10:02 56.93017 -158.91911 33173 ft 506 kts 77°
2026-05-06 10:03 56.94144 -158.79189 33170 ft 507 kts 77°
2026-05-06 10:03 56.95260 -158.66431 33179 ft 507 kts 77°
2026-05-06 10:04 56.96425 -158.53667 33187 ft 508 kts 76°
2026-05-06 10:04 56.97652 -158.40923 33178 ft 508 kts 76°
2026-05-06 10:05 56.98869 -158.28151 33179 ft 509 kts 76°
2026-05-06 10:05 57.00064 -158.15341 33152 ft 510 kts 76°
2026-05-06 10:06 57.01239 -158.02510 33142 ft 510 kts 76°
2026-05-06 10:06 57.02400 -157.89675 33141 ft 510 kts 76°
2026-05-06 10:07 57.03548 -157.76829 33132 ft 510 kts 76°
2026-05-06 10:07 57.04685 -157.63967 33123 ft 511 kts 76°
2026-05-06 10:08 57.05811 -157.51075 33113 ft 511 kts 77°
2026-05-06 10:08 57.06925 -157.38162 33264 ft 513 kts 77°
2026-05-06 10:09 57.07479 -157.31681 33637 ft 512 kts 77°
2026-05-06 10:09 57.08026 -157.25224 34011 ft 511 kts 77°
2026-05-06 10:09 57.08569 -157.18772 34307 ft 510 kts 77°
2026-05-06 10:09 57.09109 -157.12330 34535 ft 510 kts 78°
2026-05-06 10:10 57.09646 -157.05883 34768 ft 510 kts 78°
2026-05-06 10:10 57.10179 -156.99434 34985 ft 510 kts 78°
2026-05-06 10:10 57.11246 -156.86443 35085 ft 514 kts 78°
2026-05-06 10:11 57.12292 -156.73482 35087 ft 510 kts 79°
2026-05-06 10:11 57.13318 -156.60596 35069 ft 508 kts 79°
2026-05-06 10:12 57.14326 -156.47802 35066 ft 508 kts 79°
2026-05-06 10:12 57.15327 -156.34924 35058 ft 508 kts 79°
2026-05-06 10:13 57.16317 -156.22001 35061 ft 510 kts 80°
2026-05-06 10:13 57.17296 -156.09035 35056 ft 511 kts 80°
2026-05-06 10:14 57.18264 -155.96025 35054 ft 513 kts 80°
2026-05-06 10:14 57.19222 -155.82964 35046 ft 514 kts 80°
2026-05-06 10:15 57.20168 -155.69879 35042 ft 515 kts 81°
2026-05-06 10:15 57.21100 -155.56777 35042 ft 515 kts 81°
2026-05-06 10:16 57.22020 -155.43654 35039 ft 516 kts 81°
2026-05-06 10:16 57.22927 -155.30526 35031 ft 516 kts 81°
2026-05-06 10:17 57.23819 -155.17397 35031 ft 515 kts 81°
2026-05-06 10:17 57.24698 -155.04263 35027 ft 515 kts 82°
2026-05-06 10:18 57.25561 -154.91150 35024 ft 515 kts 82°
2026-05-06 10:18 57.26410 -154.78032 35019 ft 514 kts 82°
2026-05-06 10:19 57.27246 -154.64913 35019 ft 514 kts 82°
2026-05-06 10:19 57.28068 -154.51781 35019 ft 514 kts 82°
2026-05-06 10:20 57.28876 -154.38653 35028 ft 514 kts 83°
2026-05-06 10:20 57.29670 -154.25528 35022 ft 514 kts 83°
2026-05-06 10:21 57.30449 -154.12399 35020 ft 514 kts 83°
2026-05-06 10:21 57.31218 -153.99233 35007 ft 514 kts 83°
2026-05-06 10:22 57.31970 -153.86091 34999 ft 514 kts 84°
2026-05-06 10:22 57.32680 -153.73450 34999 ft 514 kts 84°
2026-05-06 10:23 57.33412 -153.60192 34995 ft 514 kts 84°
2026-05-06 10:23 57.34120 -153.47106 34985 ft 514 kts 84°
2026-05-06 10:24 57.34820 -153.33924 34984 ft 514 kts 84°
2026-05-06 10:24 57.35504 -153.20743 34976 ft 514 kts 85°
2026-05-06 10:25 57.36177 -153.07547 34975 ft 515 kts 85°
2026-05-06 10:25 57.36835 -152.94340 34964 ft 515 kts 85°
2026-05-06 10:26 57.37480 -152.81117 34955 ft 515 kts 85°
2026-05-06 10:26 57.38112 -152.67880 34952 ft 515 kts 85°
2026-05-06 10:27 57.38730 -152.54642 34949 ft 515 kts 86°
2026-05-06 10:27 57.39232 -152.43642 34949 ft 515 kts 86°
2026-05-06 10:28 57.39823 -152.30420 34948 ft 514 kts 86°
2026-05-06 10:28 57.40400 -152.17192 34947 ft 514 kts 86°
2026-05-06 10:29 57.40963 -152.03976 34951 ft 514 kts 86°
2026-05-06 10:29 57.41512 -151.90772 34949 ft 513 kts 87°
2026-05-06 10:30 57.42045 -151.77587 34948 ft 513 kts 87°
2026-05-06 10:30 57.42566 -151.64374 34943 ft 513 kts 87°
2026-05-06 10:31 57.43073 -151.51171 34944 ft 513 kts 88°
2026-05-06 10:31 57.43565 -151.37974 34941 ft 513 kts 88°
2026-05-06 10:32 57.44043 -151.24776 34938 ft 513 kts 88°
2026-05-06 10:32 57.44508 -151.11569 34937 ft 513 kts 88°
2026-05-06 10:33 57.44960 -150.98349 34937 ft 513 kts 88°
2026-05-06 10:33 57.45398 -150.85112 34944 ft 513 kts 89°
2026-05-06 10:34 57.45822 -150.71878 34935 ft 514 kts 89°
2026-05-06 10:34 57.46235 -150.58612 34937 ft 514 kts 89°
2026-05-06 10:35 57.47012 -150.45406 34937 ft 516 kts 83°
2026-05-06 10:35 57.48249 -150.32364 34938 ft 516 kts 82°
2026-05-06 10:36 57.49507 -150.19219 34936 ft 516 kts 82°
2026-05-06 10:36 57.50719 -150.06058 34934 ft 516 kts 83°
2026-05-06 10:37 57.51895 -149.92892 34944 ft 516 kts 83°
2026-05-06 10:37 57.53054 -149.79698 34946 ft 516 kts 83°
2026-05-06 10:38 57.54201 -149.66496 34941 ft 516 kts 84°
2026-05-06 10:38 57.55336 -149.53288 34942 ft 516 kts 84°
2026-05-06 10:39 57.56458 -149.40074 34942 ft 516 kts 84°
2026-05-06 10:39 57.57564 -149.26863 34949 ft 516 kts 84°
2026-05-06 10:40 57.58658 -149.13640 34952 ft 516 kts 84°
2026-05-06 10:40 57.59738 -149.00391 34956 ft 516 kts 85°
2026-05-06 10:41 57.60803 -148.87156 34956 ft 516 kts 85°
2026-05-06 10:41 57.61855 -148.73904 34952 ft 516 kts 85°
2026-05-06 10:42 57.62893 -148.60648 34956 ft 516 kts 85°
2026-05-06 10:42 57.63918 -148.47372 34957 ft 516 kts 85°
2026-05-06 10:43 57.64928 -148.34112 34963 ft 516 kts 86°
2026-05-06 10:44 57.66417 -148.14163 34969 ft 520 kts 84°
2026-05-06 10:44 57.67405 -148.00693 34967 ft 525 kts 84°
2026-05-06 10:45 57.68384 -147.87160 34966 ft 526 kts 85°
2026-05-06 10:45 57.69349 -147.73615 34969 ft 526 kts 85°
2026-05-06 10:46 57.70298 -147.60082 34966 ft 524 kts 85°
2026-05-06 10:46 57.71230 -147.46573 34968 ft 523 kts 85°
2026-05-06 10:47 57.72145 -147.33085 34966 ft 522 kts 85°
2026-05-06 10:47 57.73045 -147.19605 34972 ft 521 kts 85°
2026-05-06 10:48 57.73923 -147.06231 34976 ft 521 kts 85°
2026-05-06 10:48 57.74793 -146.92762 34979 ft 521 kts 86°
2026-05-06 10:49 57.75649 -146.79289 34979 ft 521 kts 86°
2026-05-06 10:49 57.76491 -146.65791 34985 ft 522 kts 86°
2026-05-06 10:50 57.77320 -146.52272 34987 ft 522 kts 86°
2026-05-06 10:50 57.78134 -146.38743 34991 ft 523 kts 86°
2026-05-06 10:51 57.78935 -146.25201 34987 ft 523 kts 86°
2026-05-06 10:51 57.79722 -146.11646 34991 ft 523 kts 86°
2026-05-06 10:52 57.80495 -145.98079 34994 ft 523 kts 86°
2026-05-06 10:52 57.81253 -145.84513 34993 ft 523 kts 87°
2026-05-06 10:53 57.81995 -145.70949 34999 ft 522 kts 87°
2026-05-06 10:53 57.82723 -145.57392 34997 ft 522 kts 87°
2026-05-06 10:54 57.83436 -145.43835 35004 ft 522 kts 87°
2026-05-06 10:54 57.84134 -145.30280 35006 ft 522 kts 87°
2026-05-06 10:55 57.84817 -145.16737 35005 ft 521 kts 87°
2026-05-06 10:55 57.85486 -145.03178 35011 ft 521 kts 88°
2026-05-06 10:56 57.86139 -144.89637 35008 ft 521 kts 88°
2026-05-06 10:56 57.86778 -144.76083 35016 ft 521 kts 88°
2026-05-06 10:57 57.87403 -144.62533 35018 ft 520 kts 88°
2026-05-06 10:57 57.88012 -144.48987 35016 ft 520 kts 88°
2026-05-06 10:58 57.88607 -144.35439 35022 ft 520 kts 88°
2026-05-06 10:58 57.89188 -144.21895 35028 ft 520 kts 88°
2026-05-06 10:59 57.89754 -144.08346 35025 ft 520 kts 88°
2026-05-06 10:59 57.90305 -143.94790 35033 ft 520 kts 88°
2026-05-06 11:00 57.90842 -143.81244 35038 ft 520 kts 89°
2026-05-06 11:00 57.91361 -143.67780 35032 ft 520 kts 89°
2026-05-06 11:01 57.91869 -143.54221 35036 ft 520 kts 89°
2026-05-06 11:01 57.92362 -143.40665 35047 ft 520 kts 89°
2026-05-06 11:02 57.92842 -143.27086 35036 ft 520 kts 89°
2026-05-06 11:02 57.93309 -143.13433 35048 ft 520 kts 89°
2026-05-06 11:03 57.93757 -142.99940 35047 ft 520 kts 89°
2026-05-06 11:03 57.94193 -142.86353 35054 ft 520 kts 89°
2026-05-06 11:04 57.94614 -142.72759 35067 ft 520 kts 90°
2026-05-06 11:04 57.95021 -142.59159 35064 ft 520 kts 90°
2026-05-06 11:05 57.95415 -142.45546 35062 ft 520 kts 90°
2026-05-06 11:05 57.95793 -142.31943 35065 ft 520 kts 90°
2026-05-06 11:06 57.96157 -142.18311 35067 ft 521 kts 90°
2026-05-06 11:06 57.96506 -142.04702 35068 ft 521 kts 90°
2026-05-06 11:07 57.96841 -141.91054 35076 ft 521 kts 90°
2026-05-06 11:07 57.97162 -141.77422 35079 ft 521 kts 90°
2026-05-06 11:08 57.97468 -141.63780 35078 ft 521 kts 91°
2026-05-06 11:08 57.97759 -141.50132 35080 ft 522 kts 91°
2026-05-06 11:09 57.98036 -141.36462 35085 ft 522 kts 91°
2026-05-06 11:09 57.98299 -141.22795 35083 ft 522 kts 91°
2026-05-06 11:10 57.98547 -141.09114 35089 ft 522 kts 91°
2026-05-06 11:10 57.98742 -140.97737 35092 ft 523 kts 91°
2026-05-06 11:11 57.98963 -140.84038 35095 ft 523 kts 91°
2026-05-06 11:11 57.99170 -140.70339 35095 ft 523 kts 91°
2026-05-06 11:12 57.99362 -140.56633 35097 ft 523 kts 91°
2026-05-06 11:12 57.99539 -140.42918 35100 ft 523 kts 92°
2026-05-06 11:13 57.99702 -140.29203 35103 ft 523 kts 92°
2026-05-06 11:13 57.99850 -140.15466 35110 ft 524 kts 92°
2026-05-06 11:14 57.99986 -140.01745 35112 ft 524 kts 92°
2026-05-06 11:14 57.99965 -139.88022 35116 ft 522 kts 95°
2026-05-06 11:15 57.99735 -139.74332 35115 ft 522 kts 95°
2026-05-06 11:15 57.99486 -139.60662 35113 ft 522 kts 95°
2026-05-06 11:16 57.99258 -139.46964 35121 ft 523 kts 95°
2026-05-06 11:16 57.99034 -139.33281 35120 ft 523 kts 95°
2026-05-06 11:17 57.98798 -139.19577 35122 ft 523 kts 95°
2026-05-06 11:17 57.98546 -139.05880 35115 ft 523 kts 95°
2026-05-06 11:18 57.98276 -138.92190 35126 ft 523 kts 95°
2026-05-06 11:18 57.97992 -138.78495 35123 ft 523 kts 95°
2026-05-06 11:19 57.97695 -138.64886 35124 ft 523 kts 95°
2026-05-06 11:19 57.97380 -138.51116 35127 ft 523 kts 96°
2026-05-06 11:20 57.97051 -138.37414 35128 ft 523 kts 96°
2026-05-06 11:20 57.96709 -138.23735 35129 ft 523 kts 96°
2026-05-06 11:21 57.96351 -138.10045 35128 ft 523 kts 96°
2026-05-06 11:21 57.95978 -137.96354 35127 ft 523 kts 96°
2026-05-06 11:22 57.95591 -137.82666 35123 ft 523 kts 96°
2026-05-06 11:22 57.95189 -137.68990 35130 ft 523 kts 96°
2026-05-06 11:23 57.94773 -137.55305 35125 ft 523 kts 96°
2026-05-06 11:23 57.94341 -137.41627 35132 ft 523 kts 96°
2026-05-06 11:24 57.93895 -137.27938 35130 ft 523 kts 97°
2026-05-06 11:24 57.93434 -137.14269 35135 ft 523 kts 97°
2026-05-06 11:25 57.92959 -137.00601 35140 ft 523 kts 97°
2026-05-06 11:25 57.92469 -136.86948 35141 ft 523 kts 97°
2026-05-06 11:26 57.91967 -136.73365 35139 ft 523 kts 97°
2026-05-06 11:26 57.91445 -136.59623 35142 ft 523 kts 97°
2026-05-06 11:27 57.90914 -136.46056 35149 ft 524 kts 97°
2026-05-06 11:27 57.90361 -136.32306 35131 ft 524 kts 98°
2026-05-06 11:28 57.89801 -136.18765 35144 ft 523 kts 98°
2026-05-06 11:28 57.89226 -136.05142 35155 ft 523 kts 98°
2026-05-06 11:29 57.88634 -135.91512 35145 ft 524 kts 98°
2026-05-06 11:29 57.88026 -135.77867 35150 ft 524 kts 98°
2026-05-06 11:30 57.87402 -135.64207 35157 ft 525 kts 98°
2026-05-06 11:30 57.86760 -135.50508 35150 ft 527 kts 98°
2026-05-06 11:31 57.86105 -135.36788 35156 ft 528 kts 99°
2026-05-06 11:31 57.85436 -135.23076 35135 ft 527 kts 99°
2026-05-06 11:32 57.84752 -135.09378 35156 ft 528 kts 99°
2026-05-06 11:32 57.84050 -134.95659 35134 ft 528 kts 99°
2026-05-06 11:33 57.83335 -134.81966 35143 ft 527 kts 99°
2026-05-06 11:33 57.82607 -134.68289 35142 ft 526 kts 99°
2026-05-06 11:34 57.81864 -134.54634 35134 ft 526 kts 99°
2026-05-06 11:34 57.81109 -134.41009 35143 ft 523 kts 100°
2026-05-06 11:35 57.80341 -134.27449 35138 ft 522 kts 100°
2026-05-06 11:35 57.79560 -134.13924 35170 ft 521 kts 100°
2026-05-06 11:36 57.78766 -134.00400 35165 ft 522 kts 100°
2026-05-06 11:36 57.77962 -133.86957 35156 ft 523 kts 101°
2026-05-06 11:37 57.77137 -133.73427 35153 ft 523 kts 101°
2026-05-06 11:37 57.76292 -133.59811 35150 ft 523 kts 101°
2026-05-06 11:38 57.75440 -133.46308 35169 ft 522 kts 101°
2026-05-06 11:38 57.74572 -133.32804 35159 ft 522 kts 101°
2026-05-06 11:39 57.73701 -133.19426 35179 ft 520 kts 101°
2026-05-06 11:39 57.72807 -133.05970 35158 ft 520 kts 102°
2026-05-06 11:40 57.71900 -132.92553 35165 ft 519 kts 102°
2026-05-06 11:40 57.70980 -132.79140 35160 ft 519 kts 102°
2026-05-06 11:41 57.70048 -132.65765 35152 ft 519 kts 102°
2026-05-06 11:41 57.69101 -132.52385 35133 ft 519 kts 102°
2026-05-06 11:42 57.68142 -132.39037 35134 ft 517 kts 102°
2026-05-06 11:42 57.67170 -132.25718 35109 ft 518 kts 102°
2026-05-06 11:43 57.66185 -132.12380 35112 ft 518 kts 102°
2026-05-06 11:43 57.65181 -131.99017 35096 ft 520 kts 102°
2026-05-06 11:44 57.63641 -131.78947 35093 ft 521 kts 103°
2026-05-06 11:44 57.62599 -131.65558 35084 ft 520 kts 103°
2026-05-06 11:45 57.61546 -131.52203 35077 ft 521 kts 103°
2026-05-06 11:45 57.60477 -131.38859 35063 ft 520 kts 103°
2026-05-06 11:46 57.59394 -131.25521 35093 ft 520 kts 103°
2026-05-06 11:46 57.58298 -131.12194 35077 ft 520 kts 103°
2026-05-06 11:47 57.57185 -130.98865 35069 ft 520 kts 103°
2026-05-06 11:47 57.56063 -130.85576 35059 ft 520 kts 104°
2026-05-06 11:48 57.54925 -130.72280 35053 ft 520 kts 104°
2026-05-06 11:48 57.53771 -130.58970 35048 ft 521 kts 104°
2026-05-06 11:49 57.52603 -130.45667 35042 ft 520 kts 104°
2026-05-06 11:49 57.51424 -130.32398 35029 ft 520 kts 104°
2026-05-06 11:50 57.50230 -130.19141 35030 ft 519 kts 104°
2026-05-06 11:50 57.49030 -130.05988 35026 ft 519 kts 104°
2026-05-06 11:51 57.48009 -129.94908 35020 ft 519 kts 104°
2026-05-06 11:51 57.46581 -129.79574 35017 ft 518 kts 104°
2026-05-06 11:52 57.45337 -129.66397 35018 ft 518 kts 104°
2026-05-06 11:52 57.44285 -129.55382 35004 ft 518 kts 104°
2026-05-06 11:53 57.43016 -129.42222 34993 ft 517 kts 104°
2026-05-06 11:53 57.41733 -129.29080 34992 ft 518 kts 104°
2026-05-06 11:54 57.40436 -129.15945 35010 ft 517 kts 104°
2026-05-06 11:54 57.39125 -129.02821 34993 ft 517 kts 104°
2026-05-06 11:55 57.37803 -128.89716 34986 ft 516 kts 105°
2026-05-06 11:55 57.36480 -128.76738 34985 ft 516 kts 105°
2026-05-06 11:56 57.35127 -128.63617 34994 ft 514 kts 105°
2026-05-06 11:56 57.33782 -128.50699 34968 ft 513 kts 105°
2026-05-06 11:57 57.32416 -128.37751 34980 ft 513 kts 105°
2026-05-06 11:57 57.31034 -128.24786 34972 ft 513 kts 105°
2026-05-06 11:58 57.29644 -128.11855 34971 ft 512 kts 105°
2026-05-06 11:58 57.28233 -127.98861 34981 ft 512 kts 105°
2026-05-06 11:59 57.26823 -127.86033 34971 ft 513 kts 105°
2026-05-06 11:59 57.25392 -127.73127 34967 ft 513 kts 105°
2026-05-06 12:00 57.23946 -127.60210 34962 ft 514 kts 105°
2026-05-06 12:00 57.22486 -127.47303 34965 ft 514 kts 106°
2026-05-06 12:01 57.21013 -127.34403 34954 ft 514 kts 106°
2026-05-06 12:01 57.19523 -127.21493 34957 ft 514 kts 106°
2026-05-06 12:02 57.18022 -127.08601 34944 ft 514 kts 106°
2026-05-06 12:02 57.16506 -126.95708 34941 ft 515 kts 106°
2026-05-06 12:03 57.14975 -126.82811 34932 ft 515 kts 107°
2026-05-06 12:03 57.13432 -126.69923 34934 ft 515 kts 107°
2026-05-06 12:04 57.11877 -126.57069 34931 ft 515 kts 107°
2026-05-06 12:04 57.10317 -126.44296 34908 ft 515 kts 107°
2026-05-06 12:05 57.08732 -126.31442 34911 ft 516 kts 107°
2026-05-06 12:05 57.07130 -126.18557 34904 ft 517 kts 107°
2026-05-06 12:06 57.05514 -126.05678 34896 ft 518 kts 107°
2026-05-06 12:06 57.03881 -125.92783 34886 ft 519 kts 107°
2026-05-06 12:07 57.02238 -125.79907 34885 ft 518 kts 107°
2026-05-06 12:07 57.00583 -125.67059 34918 ft 516 kts 107°
2026-05-06 12:08 56.98913 -125.54219 34889 ft 518 kts 107°
2026-05-06 12:08 56.97229 -125.41390 34895 ft 517 kts 107°
2026-05-06 12:09 56.95533 -125.28570 34883 ft 517 kts 107°
2026-05-06 12:09 56.93827 -125.15783 34882 ft 517 kts 107°
2026-05-06 12:10 56.92106 -125.02995 34871 ft 517 kts 108°
2026-05-06 12:10 56.90376 -124.90247 34877 ft 516 kts 107°
2026-05-06 12:11 56.88632 -124.77506 34864 ft 516 kts 107°
2026-05-06 12:11 56.86878 -124.64795 34846 ft 515 kts 108°
2026-05-06 12:12 56.85113 -124.52108 34839 ft 515 kts 108°
2026-05-06 12:12 56.83335 -124.39447 34836 ft 515 kts 108°
2026-05-06 12:13 56.81544 -124.26792 34844 ft 515 kts 108°
2026-05-06 12:13 56.79736 -124.14118 34841 ft 516 kts 108°
2026-05-06 12:14 56.77914 -124.01444 34850 ft 518 kts 108°
2026-05-06 12:14 56.76069 -123.88711 34836 ft 519 kts 108°
2026-05-06 12:15 56.74207 -123.75963 34834 ft 521 kts 108°
2026-05-06 12:15 56.72329 -123.63207 34832 ft 521 kts 108°
2026-05-06 12:16 56.70437 -123.50456 34832 ft 521 kts 108°
2026-05-06 12:16 56.68531 -123.37714 34827 ft 521 kts 108°
2026-05-06 12:17 56.66615 -123.25001 34833 ft 521 kts 108°
2026-05-06 12:17 56.64684 -123.12297 34846 ft 522 kts 108°
2026-05-06 12:18 56.62739 -122.99589 34858 ft 522 kts 108°
2026-05-06 12:18 56.60777 -122.86874 34864 ft 524 kts 108°
2026-05-06 12:19 56.58797 -122.74138 34858 ft 525 kts 109°
2026-05-06 12:19 56.56799 -122.61390 34849 ft 525 kts 109°
2026-05-06 12:20 56.54790 -122.48660 34856 ft 525 kts 109°
2026-05-06 12:20 56.52769 -122.35946 34849 ft 525 kts 109°
2026-05-06 12:21 56.50736 -122.23260 34852 ft 524 kts 109°
2026-05-06 12:21 56.48694 -122.10605 34842 ft 524 kts 109°
2026-05-06 12:22 56.46655 -121.98067 34843 ft 523 kts 108°
2026-05-06 12:22 56.44590 -121.85455 34842 ft 522 kts 109°
2026-05-06 12:23 56.42517 -121.72892 34834 ft 522 kts 108°
2026-05-06 12:23 56.40432 -121.60344 34837 ft 521 kts 108°
2026-05-06 12:24 56.38336 -121.47821 34843 ft 521 kts 108°
2026-05-06 12:24 56.36231 -121.35329 34835 ft 521 kts 108°
2026-05-06 12:25 56.34111 -121.22840 34825 ft 520 kts 108°
2026-05-06 12:25 56.31983 -121.10384 34818 ft 520 kts 109°
2026-05-06 12:26 56.29841 -120.97923 34814 ft 520 kts 109°
2026-05-06 12:26 56.27505 -120.85608 34805 ft 519 kts 115°
2026-05-06 12:27 56.24544 -120.73785 34810 ft 518 kts 116°
2026-05-06 12:27 56.21521 -120.61999 34805 ft 519 kts 116°
2026-05-06 12:28 56.18514 -120.50192 34816 ft 520 kts 116°
2026-05-06 12:28 56.15517 -120.38377 34827 ft 520 kts 116°
2026-05-06 12:29 56.12513 -120.26565 34839 ft 521 kts 116°
2026-05-06 12:29 56.09494 -120.14766 34853 ft 521 kts 116°
2026-05-06 12:30 56.06462 -120.02986 34852 ft 521 kts 116°
2026-05-06 12:30 56.03414 -119.91211 34855 ft 521 kts 116°
2026-05-06 12:31 56.00356 -119.79456 34861 ft 521 kts 116°
2026-05-06 12:31 55.97289 -119.67732 34867 ft 521 kts 116°
2026-05-06 12:32 55.94208 -119.56015 34870 ft 521 kts 116°
2026-05-06 12:32 55.91114 -119.44307 34869 ft 521 kts 116°
2026-05-06 12:33 55.88537 -119.34599 34873 ft 521 kts 116°
2026-05-06 12:33 55.84917 -119.21037 34876 ft 522 kts 116°
2026-05-06 12:34 55.81793 -119.09396 34882 ft 522 kts 116°
2026-05-06 12:34 55.79184 -118.99722 34886 ft 522 kts 116°
2026-05-06 12:35 55.76037 -118.88104 34886 ft 522 kts 116°
2026-05-06 12:35 55.72877 -118.76497 34887 ft 523 kts 116°
2026-05-06 12:36 55.69701 -118.64895 34887 ft 523 kts 116°
2026-05-06 12:36 55.66515 -118.53311 34894 ft 524 kts 116°
2026-05-06 12:37 55.63310 -118.41718 34889 ft 524 kts 117°
2026-05-06 12:37 55.60095 -118.30145 34899 ft 524 kts 117°
2026-05-06 12:38 55.56863 -118.18572 34894 ft 525 kts 117°
2026-05-06 12:38 55.53620 -118.07017 34898 ft 525 kts 117°
2026-05-06 12:39 55.50367 -117.95485 34891 ft 525 kts 117°
2026-05-06 12:39 55.47101 -117.83962 34895 ft 525 kts 117°
2026-05-06 12:40 55.43818 -117.72439 34893 ft 526 kts 117°
2026-05-06 12:40 55.40524 -117.60931 34895 ft 526 kts 117°
2026-05-06 12:41 55.37215 -117.49430 34897 ft 526 kts 117°
2026-05-06 12:41 55.33898 -117.37958 34898 ft 526 kts 117°
2026-05-06 12:42 55.30570 -117.26503 34896 ft 527 kts 117°
2026-05-06 12:42 55.27224 -117.15046 34902 ft 527 kts 117°
2026-05-06 12:43 55.23870 -117.03612 34900 ft 528 kts 117°
2026-05-06 12:43 55.20502 -116.92189 34904 ft 528 kts 117°
2026-05-06 12:44 55.17118 -116.80768 34903 ft 529 kts 117°
2026-05-06 12:44 55.13719 -116.69350 34909 ft 529 kts 117°
2026-05-06 12:45 55.10309 -116.57951 34912 ft 529 kts 117°
2026-05-06 12:46 55.05199 -116.40973 34912 ft 529 kts 117°
2026-05-06 12:46 55.01739 -116.29544 34921 ft 530 kts 117°
2026-05-06 12:47 54.98312 -116.18279 34917 ft 530 kts 117°
2026-05-06 12:47 54.94847 -116.06944 34930 ft 530 kts 117°
2026-05-06 12:48 54.91373 -115.95632 34943 ft 530 kts 117°
2026-05-06 12:48 54.87881 -115.84315 34943 ft 531 kts 117°
2026-05-06 12:49 54.84382 -115.73031 34951 ft 531 kts 117°
2026-05-06 12:49 54.80868 -115.61751 34965 ft 532 kts 117°
2026-05-06 12:50 54.77346 -115.50497 34973 ft 532 kts 117°
2026-05-06 12:50 54.73802 -115.39227 34964 ft 533 kts 117°
2026-05-06 12:51 54.70247 -115.27975 34981 ft 533 kts 117°
2026-05-06 12:51 54.66685 -115.16753 35007 ft 533 kts 117°
2026-05-06 12:52 54.63103 -115.05519 35006 ft 534 kts 117°
2026-05-06 12:52 54.59511 -114.94309 35012 ft 534 kts 117°
2026-05-06 12:53 54.55902 -114.83095 35014 ft 535 kts 117°
2026-05-06 12:53 54.52280 -114.71893 35018 ft 536 kts 117°
2026-05-06 12:54 54.48640 -114.60692 35017 ft 536 kts 117°
2026-05-06 12:54 54.44992 -114.49514 35021 ft 536 kts 117°
2026-05-06 12:55 54.41332 -114.38350 35019 ft 537 kts 117°
2026-05-06 12:55 54.37654 -114.27181 35018 ft 537 kts 117°
2026-05-06 12:56 54.33995 -114.16121 35025 ft 537 kts 117°
2026-05-06 12:56 54.30302 -114.05003 35025 ft 537 kts 117°
2026-05-06 12:57 54.26563 -113.93932 35025 ft 537 kts 119°
2026-05-06 12:57 54.22545 -113.83145 35030 ft 538 kts 121°
2026-05-06 12:58 54.18440 -113.72457 35029 ft 538 kts 121°
2026-05-06 12:58 54.14361 -113.61750 35041 ft 538 kts 121°
2026-05-06 12:59 54.10311 -113.51043 35040 ft 538 kts 120°
2026-05-06 12:59 54.06257 -113.40344 35044 ft 538 kts 120°
2026-05-06 13:00 54.02189 -113.29660 35045 ft 538 kts 120°
2026-05-06 13:00 53.98110 -113.19005 35051 ft 538 kts 121°
2026-05-06 13:01 53.94020 -113.08369 35056 ft 538 kts 121°
2026-05-06 13:01 53.89920 -112.97752 35057 ft 538 kts 121°
2026-05-06 13:02 53.85812 -112.87158 35064 ft 538 kts 121°
2026-05-06 13:02 53.81691 -112.76575 35067 ft 538 kts 121°
2026-05-06 13:03 53.77560 -112.66011 35072 ft 539 kts 121°
2026-05-06 13:03 53.73442 -112.55526 35082 ft 539 kts 121°
2026-05-06 13:04 53.69257 -112.44912 35096 ft 539 kts 121°
2026-05-06 13:04 53.65118 -112.34462 35095 ft 539 kts 120°
2026-05-06 13:05 53.60941 -112.23959 35084 ft 539 kts 121°
2026-05-06 13:05 53.56754 -112.13476 35091 ft 540 kts 121°
2026-05-06 13:06 53.52559 -112.03014 35102 ft 540 kts 121°
2026-05-06 13:06 53.48352 -111.92567 35112 ft 540 kts 121°
2026-05-06 13:07 53.44134 -111.82134 35107 ft 540 kts 121°
2026-05-06 13:07 53.39906 -111.71723 35111 ft 540 kts 121°
2026-05-06 13:08 53.35666 -111.61323 35117 ft 540 kts 121°
2026-05-06 13:08 53.31418 -111.50944 35118 ft 540 kts 121°
2026-05-06 13:09 53.27158 -111.40580 35118 ft 540 kts 121°
2026-05-06 13:09 53.22922 -111.30320 35126 ft 540 kts 121°
2026-05-06 13:10 53.18650 -111.20009 35128 ft 540 kts 121°
2026-05-06 13:10 53.14364 -111.09708 35126 ft 540 kts 121°
2026-05-06 13:11 53.10074 -110.99438 35134 ft 540 kts 121°
2026-05-06 13:11 53.05776 -110.89186 35135 ft 540 kts 121°
2026-05-06 13:12 53.01629 -110.78823 35137 ft 537 kts 116°
2026-05-06 13:12 52.97851 -110.68138 35132 ft 537 kts 115°
2026-05-06 13:13 52.94087 -110.57436 35138 ft 537 kts 115°
2026-05-06 13:13 52.90291 -110.46764 35142 ft 538 kts 115°
2026-05-06 13:14 52.86466 -110.36116 35143 ft 538 kts 115°
2026-05-06 13:14 52.82624 -110.25479 35143 ft 539 kts 115°
2026-05-06 13:15 52.78771 -110.14854 35141 ft 539 kts 115°
2026-05-06 13:15 52.74909 -110.04240 35143 ft 539 kts 115°
2026-05-06 13:16 52.71032 -109.93632 35143 ft 540 kts 115°
2026-05-06 13:16 52.67142 -109.83032 35147 ft 540 kts 115°
2026-05-06 13:17 52.63247 -109.72465 35144 ft 540 kts 115°
2026-05-06 13:17 52.59998 -109.63683 35154 ft 540 kts 115°
2026-05-06 13:18 52.56085 -109.53147 35158 ft 540 kts 115°
2026-05-06 13:18 52.52157 -109.42612 35168 ft 540 kts 115°
2026-05-06 13:19 52.48227 -109.32121 35164 ft 540 kts 115°
2026-05-06 13:19 52.44277 -109.21615 35171 ft 541 kts 115°
2026-05-06 13:20 52.40322 -109.11142 35170 ft 541 kts 115°
2026-05-06 13:20 52.36355 -109.00678 35178 ft 541 kts 115°
2026-05-06 13:21 52.32378 -108.90233 35176 ft 541 kts 115°
2026-05-06 13:21 52.28386 -108.79792 35175 ft 541 kts 115°
2026-05-06 13:22 52.24384 -108.69369 35184 ft 542 kts 115°
2026-05-06 13:22 52.20372 -108.58959 35175 ft 542 kts 115°
2026-05-06 13:23 52.16352 -108.48571 35169 ft 542 kts 115°
2026-05-06 13:23 52.12319 -108.38195 35167 ft 542 kts 115°
2026-05-06 13:24 52.08280 -108.27844 35173 ft 542 kts 115°
2026-05-06 13:24 52.04235 -108.17519 35172 ft 542 kts 115°
2026-05-06 13:25 52.00176 -108.07200 35174 ft 542 kts 115°
2026-05-06 13:25 51.96132 -107.96960 35175 ft 542 kts 115°
2026-05-06 13:26 51.92053 -107.86675 35175 ft 542 kts 115°
2026-05-06 13:26 51.87967 -107.76411 35175 ft 542 kts 115°
2026-05-06 13:27 51.83869 -107.66159 35183 ft 542 kts 115°
2026-05-06 13:27 51.79769 -107.55943 35187 ft 542 kts 115°
2026-05-06 13:28 51.75654 -107.45729 35186 ft 542 kts 115°
2026-05-06 13:28 51.71534 -107.35544 35187 ft 542 kts 115°
2026-05-06 13:29 51.67401 -107.25368 35191 ft 542 kts 115°
2026-05-06 13:29 51.63259 -107.15209 35184 ft 543 kts 115°
2026-05-06 13:30 51.59107 -107.05068 35187 ft 543 kts 115°
2026-05-06 13:30 51.54947 -106.94944 35192 ft 543 kts 116°
2026-05-06 13:31 51.50773 -106.84827 35189 ft 543 kts 116°
2026-05-06 13:31 51.46588 -106.74721 35190 ft 544 kts 116°
2026-05-06 13:32 51.42395 -106.64638 35175 ft 544 kts 116°
2026-05-06 13:32 51.38194 -106.54576 35184 ft 543 kts 116°